<?xml version="1.0" encoding="UTF-8" standalone="no" ?>
<gpx xmlns="http://www.topografix.com/GPX/1/1" xmlns:xsi="http://www.w3.org/2001/XMLSchema-instance" xsi:schemaLocation="http://www.topografix.com/GPX/1/1 http://www.topografix.com/GPX/1/1/gpx.xsd" version="1.1" creator="VisuGPX - https://www.visugpx.com">
  <metadata>
    <name>Monastère de Prébayon</name>
    <desc><![CDATA[projet]]></desc>
  </metadata>
  <trk>
    <name><![CDATA[Monastère de Prébayon_1]]></name>
    <extensions>
      <line xmlns="http://www.topografix.com/GPX/gpx_style/0/2">
        <color>0000FF</color>
        <width>4</width>
      </line>
    </extensions>
    <trkseg>
      <trkpt lat="44.20685" lon="5.02294">
        <ele>243.2</ele>
        <time>2020-11-26T08:14:08Z</time>
      </trkpt>
      <trkpt lat="44.20684" lon="5.02293">
        <ele>243.2</ele>
        <time>2020-11-26T08:14:09Z</time>
      </trkpt>
      <trkpt lat="44.20662" lon="5.0228">
        <ele>242.9</ele>
        <time>2020-11-26T08:14:35Z</time>
      </trkpt>
      <trkpt lat="44.20659" lon="5.02279">
        <ele>242.7</ele>
        <time>2020-11-26T08:14:38Z</time>
      </trkpt>
      <trkpt lat="44.20638" lon="5.02276">
        <ele>242.1</ele>
        <time>2020-11-26T08:14:56Z</time>
      </trkpt>
      <trkpt lat="44.20632" lon="5.02274">
        <ele>241.7</ele>
        <time>2020-11-26T08:15:01Z</time>
      </trkpt>
      <trkpt lat="44.20617" lon="5.02276">
        <ele>242.3</ele>
        <time>2020-11-26T08:15:14Z</time>
      </trkpt>
      <trkpt lat="44.20615" lon="5.02278">
        <ele>242.8</ele>
        <time>2020-11-26T08:15:18Z</time>
      </trkpt>
      <trkpt lat="44.20611" lon="5.02283">
        <ele>244.2</ele>
        <time>2020-11-26T08:15:23Z</time>
      </trkpt>
      <trkpt lat="44.20605" lon="5.02292">
        <ele>246.7</ele>
        <time>2020-11-26T08:15:36Z</time>
      </trkpt>
      <trkpt lat="44.20589" lon="5.02298">
        <ele>248.7</ele>
        <time>2020-11-26T08:15:56Z</time>
      </trkpt>
      <trkpt lat="44.20581" lon="5.02305">
        <ele>250.7</ele>
        <time>2020-11-26T08:16:11Z</time>
      </trkpt>
      <trkpt lat="44.20569" lon="5.023">
        <ele>248.4</ele>
        <time>2020-11-26T08:16:37Z</time>
      </trkpt>
      <trkpt lat="44.20554" lon="5.02318">
        <ele>252.5</ele>
        <time>2020-11-26T08:16:55Z</time>
      </trkpt>
      <trkpt lat="44.20543" lon="5.0231">
        <ele>249.4</ele>
        <time>2020-11-26T08:17:19Z</time>
      </trkpt>
      <trkpt lat="44.20517" lon="5.02298">
        <ele>244</ele>
        <time>2020-11-26T08:17:39Z</time>
      </trkpt>
      <trkpt lat="44.20474" lon="5.0233">
        <ele>246.9</ele>
        <time>2020-11-26T08:18:29Z</time>
      </trkpt>
      <trkpt lat="44.20459" lon="5.02334">
        <ele>244.8</ele>
        <time>2020-11-26T08:18:51Z</time>
      </trkpt>
      <trkpt lat="44.20448" lon="5.02348">
        <ele>245.3</ele>
        <time>2020-11-26T08:19:05Z</time>
      </trkpt>
      <trkpt lat="44.20432" lon="5.02355">
        <ele>242.7</ele>
        <time>2020-11-26T08:19:19Z</time>
      </trkpt>
      <trkpt lat="44.20422" lon="5.02365">
        <ele>241.6</ele>
        <time>2020-11-26T08:19:29Z</time>
      </trkpt>
      <trkpt lat="44.20415" lon="5.02374">
        <ele>240.9</ele>
        <time>2020-11-26T08:19:49Z</time>
      </trkpt>
      <trkpt lat="44.20413" lon="5.02376">
        <ele>240.7</ele>
        <time>2020-11-26T08:19:51Z</time>
      </trkpt>
      <trkpt lat="44.20411" lon="5.0238">
        <ele>240.7</ele>
        <time>2020-11-26T08:19:55Z</time>
      </trkpt>
      <trkpt lat="44.20409" lon="5.02385">
        <ele>240.8</ele>
        <time>2020-11-26T08:19:58Z</time>
      </trkpt>
      <trkpt lat="44.20401" lon="5.02398">
        <ele>240.3</ele>
        <time>2020-11-26T08:20:11Z</time>
      </trkpt>
      <trkpt lat="44.204" lon="5.024">
        <ele>240.2</ele>
        <time>2020-11-26T08:20:13Z</time>
      </trkpt>
      <trkpt lat="44.20389" lon="5.02413">
        <ele>238.7</ele>
      </trkpt>
      <trkpt lat="44.2039" lon="5.02411">
        <ele>238.7</ele>
        <time>2020-11-26T08:24:34Z</time>
      </trkpt>
      <trkpt lat="44.20389" lon="5.02411">
        <ele>238.4</ele>
        <time>2020-11-26T08:24:35Z</time>
      </trkpt>
      <trkpt lat="44.20377" lon="5.02409">
        <ele>234.8</ele>
        <time>2020-11-26T08:24:46Z</time>
      </trkpt>
      <trkpt lat="44.20359" lon="5.02405">
        <ele>229.4</ele>
        <time>2020-11-26T08:25:01Z</time>
      </trkpt>
      <trkpt lat="44.20341" lon="5.02403">
        <ele>224.3</ele>
        <time>2020-11-26T08:25:20Z</time>
      </trkpt>
      <trkpt lat="44.20338" lon="5.02402">
        <ele>223.4</ele>
        <time>2020-11-26T08:25:23Z</time>
      </trkpt>
      <trkpt lat="44.20336" lon="5.02402">
        <ele>222.9</ele>
        <time>2020-11-26T08:25:24Z</time>
      </trkpt>
      <trkpt lat="44.20315" lon="5.02398">
        <ele>223.4</ele>
        <time>2020-11-26T08:25:44Z</time>
      </trkpt>
      <trkpt lat="44.20298" lon="5.02398">
        <ele>224.7</ele>
        <time>2020-11-26T08:25:59Z</time>
      </trkpt>
      <trkpt lat="44.20296" lon="5.024">
        <ele>225.1</ele>
        <time>2020-11-26T08:26:01Z</time>
      </trkpt>
      <trkpt lat="44.20295" lon="5.024">
        <ele>225.2</ele>
        <time>2020-11-26T08:26:02Z</time>
      </trkpt>
      <trkpt lat="44.20294" lon="5.02401">
        <ele>225.4</ele>
        <time>2020-11-26T08:26:03Z</time>
      </trkpt>
      <trkpt lat="44.20293" lon="5.02402">
        <ele>225.6</ele>
        <time>2020-11-26T08:26:04Z</time>
      </trkpt>
      <trkpt lat="44.20292" lon="5.02402">
        <ele>225.7</ele>
        <time>2020-11-26T08:26:05Z</time>
      </trkpt>
      <trkpt lat="44.2029" lon="5.02403">
        <ele>226</ele>
        <time>2020-11-26T08:26:06Z</time>
      </trkpt>
      <trkpt lat="44.20274" lon="5.02394">
        <ele>226.1</ele>
        <time>2020-11-26T08:26:21Z</time>
      </trkpt>
      <trkpt lat="44.20264" lon="5.02371">
        <ele>223.2</ele>
        <time>2020-11-26T08:26:37Z</time>
      </trkpt>
      <trkpt lat="44.20251" lon="5.02346">
        <ele>219.3</ele>
        <time>2020-11-26T08:26:55Z</time>
      </trkpt>
      <trkpt lat="44.20231" lon="5.02337">
        <ele>219.7</ele>
        <time>2020-11-26T08:27:14Z</time>
      </trkpt>
      <trkpt lat="44.20218" lon="5.02345">
        <ele>222.6</ele>
        <time>2020-11-26T08:27:28Z</time>
      </trkpt>
      <trkpt lat="44.20211" lon="5.02327">
        <ele>220.6</ele>
        <time>2020-11-26T08:27:50Z</time>
      </trkpt>
      <trkpt lat="44.20215" lon="5.02332">
        <ele>220.6</ele>
        <time>2020-11-26T08:28:25Z</time>
      </trkpt>
      <trkpt lat="44.20205" lon="5.0235">
        <ele>224.9</ele>
        <time>2020-11-26T08:28:55Z</time>
      </trkpt>
      <trkpt lat="44.20186" lon="5.02355">
        <ele>227.8</ele>
        <time>2020-11-26T08:29:19Z</time>
      </trkpt>
      <trkpt lat="44.20166" lon="5.02357">
        <ele>230.3</ele>
        <time>2020-11-26T08:29:40Z</time>
      </trkpt>
      <trkpt lat="44.20147" lon="5.02364">
        <ele>232.7</ele>
        <time>2020-11-26T08:29:58Z</time>
      </trkpt>
      <trkpt lat="44.20128" lon="5.02368">
        <ele>234.6</ele>
        <time>2020-11-26T08:30:18Z</time>
      </trkpt>
      <trkpt lat="44.20112" lon="5.02366">
        <ele>235.2</ele>
        <time>2020-11-26T08:30:32Z</time>
      </trkpt>
      <trkpt lat="44.201" lon="5.02362">
        <ele>235.2</ele>
        <time>2020-11-26T08:30:45Z</time>
      </trkpt>
      <trkpt lat="44.20081" lon="5.02351">
        <ele>234.4</ele>
        <time>2020-11-26T08:31:00Z</time>
      </trkpt>
      <trkpt lat="44.20077" lon="5.0235">
        <ele>234.5</ele>
        <time>2020-11-26T08:31:04Z</time>
      </trkpt>
      <trkpt lat="44.20076" lon="5.0235">
        <ele>234.6</ele>
        <time>2020-11-26T08:31:05Z</time>
      </trkpt>
      <trkpt lat="44.20074" lon="5.0235">
        <ele>234.8</ele>
        <time>2020-11-26T08:31:06Z</time>
      </trkpt>
      <trkpt lat="44.20073" lon="5.02349">
        <ele>234.7</ele>
        <time>2020-11-26T08:31:07Z</time>
      </trkpt>
      <trkpt lat="44.20072" lon="5.02349">
        <ele>234.8</ele>
        <time>2020-11-26T08:31:08Z</time>
      </trkpt>
      <trkpt lat="44.20071" lon="5.02348">
        <ele>234.7</ele>
        <time>2020-11-26T08:31:09Z</time>
      </trkpt>
      <trkpt lat="44.20063" lon="5.02345">
        <ele>234.8</ele>
        <time>2020-11-26T08:31:18Z</time>
      </trkpt>
      <trkpt lat="44.20062" lon="5.02344">
        <ele>234.7</ele>
        <time>2020-11-26T08:31:19Z</time>
      </trkpt>
      <trkpt lat="44.20046" lon="5.02335">
        <ele>234.4</ele>
        <time>2020-11-26T08:31:35Z</time>
      </trkpt>
      <trkpt lat="44.20035" lon="5.02327">
        <ele>234.1</ele>
        <time>2020-11-26T08:31:49Z</time>
      </trkpt>
      <trkpt lat="44.20035" lon="5.02326">
        <ele>234</ele>
        <time>2020-11-26T08:32:19Z</time>
      </trkpt>
      <trkpt lat="44.20034" lon="5.02326">
        <ele>234.1</ele>
        <time>2020-11-26T08:33:24Z</time>
      </trkpt>
      <trkpt lat="44.20033" lon="5.02326">
        <ele>234.2</ele>
        <time>2020-11-26T08:34:55Z</time>
      </trkpt>
      <trkpt lat="44.20025" lon="5.02324">
        <ele>234.5</ele>
        <time>2020-11-26T08:35:21Z</time>
      </trkpt>
      <trkpt lat="44.20007" lon="5.02313">
        <ele>234.3</ele>
        <time>2020-11-26T08:35:40Z</time>
      </trkpt>
      <trkpt lat="44.19989" lon="5.02307">
        <ele>233.8</ele>
        <time>2020-11-26T08:35:55Z</time>
      </trkpt>
      <trkpt lat="44.19968" lon="5.02299">
        <ele>232.4</ele>
        <time>2020-11-26T08:36:13Z</time>
      </trkpt>
      <trkpt lat="44.19949" lon="5.02295">
        <ele>231.7</ele>
        <time>2020-11-26T08:36:29Z</time>
      </trkpt>
      <trkpt lat="44.19923" lon="5.02295">
        <ele>231.5</ele>
        <time>2020-11-26T08:36:48Z</time>
      </trkpt>
      <trkpt lat="44.19908" lon="5.02296">
        <ele>231.8</ele>
        <time>2020-11-26T08:37:01Z</time>
      </trkpt>
      <trkpt lat="44.19886" lon="5.023">
        <ele>232.9</ele>
        <time>2020-11-26T08:37:18Z</time>
      </trkpt>
      <trkpt lat="44.19871" lon="5.02309">
        <ele>234.6</ele>
        <time>2020-11-26T08:37:33Z</time>
      </trkpt>
      <trkpt lat="44.19863" lon="5.02314">
        <ele>235.5</ele>
        <time>2020-11-26T08:37:42Z</time>
      </trkpt>
      <trkpt lat="44.19859" lon="5.02312">
        <ele>235.3</ele>
        <time>2020-11-26T08:37:45Z</time>
      </trkpt>
      <trkpt lat="44.19858" lon="5.02312">
        <ele>235.3</ele>
        <time>2020-11-26T08:37:46Z</time>
      </trkpt>
      <trkpt lat="44.19857" lon="5.02312">
        <ele>235.4</ele>
        <time>2020-11-26T08:37:47Z</time>
      </trkpt>
      <trkpt lat="44.19844" lon="5.02312">
        <ele>235.7</ele>
        <time>2020-11-26T08:37:58Z</time>
      </trkpt>
      <trkpt lat="44.19834" lon="5.02312">
        <ele>235.9</ele>
        <time>2020-11-26T08:38:15Z</time>
      </trkpt>
      <trkpt lat="44.1982" lon="5.02313">
        <ele>235.8</ele>
        <time>2020-11-26T08:38:38Z</time>
      </trkpt>
      <trkpt lat="44.198" lon="5.02316">
        <ele>235.7</ele>
        <time>2020-11-26T08:38:56Z</time>
      </trkpt>
      <trkpt lat="44.19779" lon="5.02319">
        <ele>235.6</ele>
        <time>2020-11-26T08:39:13Z</time>
      </trkpt>
      <trkpt lat="44.19772" lon="5.02321">
        <ele>235.8</ele>
        <time>2020-11-26T08:39:28Z</time>
      </trkpt>
      <trkpt lat="44.1977" lon="5.02321">
        <ele>235.7</ele>
        <time>2020-11-26T08:39:29Z</time>
      </trkpt>
      <trkpt lat="44.19769" lon="5.02321">
        <ele>235.7</ele>
        <time>2020-11-26T08:39:30Z</time>
      </trkpt>
      <trkpt lat="44.19768" lon="5.02321">
        <ele>235.7</ele>
        <time>2020-11-26T08:39:31Z</time>
      </trkpt>
      <trkpt lat="44.19767" lon="5.02322">
        <ele>235.8</ele>
        <time>2020-11-26T08:39:32Z</time>
      </trkpt>
      <trkpt lat="44.1975" lon="5.02324">
        <ele>235.7</ele>
        <time>2020-11-26T08:39:48Z</time>
      </trkpt>
      <trkpt lat="44.1973" lon="5.02331">
        <ele>235</ele>
        <time>2020-11-26T08:40:06Z</time>
      </trkpt>
      <trkpt lat="44.19708" lon="5.0233">
        <ele>233</ele>
        <time>2020-11-26T08:40:27Z</time>
      </trkpt>
      <trkpt lat="44.1971" lon="5.02331">
        <ele>233.3</ele>
        <time>2020-11-26T08:40:46Z</time>
      </trkpt>
      <trkpt lat="44.1971" lon="5.0233">
        <ele>233.2</ele>
        <time>2020-11-26T08:41:08Z</time>
      </trkpt>
      <trkpt lat="44.19703" lon="5.02333">
        <ele>233</ele>
        <time>2020-11-26T08:41:27Z</time>
      </trkpt>
      <trkpt lat="44.19702" lon="5.02333">
        <ele>232.9</ele>
        <time>2020-11-26T08:41:28Z</time>
      </trkpt>
      <trkpt lat="44.19678" lon="5.02334">
        <ele>231.1</ele>
        <time>2020-11-26T08:41:50Z</time>
      </trkpt>
      <trkpt lat="44.19655" lon="5.02336">
        <ele>230</ele>
        <time>2020-11-26T08:42:07Z</time>
      </trkpt>
      <trkpt lat="44.19642" lon="5.02339">
        <ele>230</ele>
        <time>2020-11-26T08:42:17Z</time>
      </trkpt>
      <trkpt lat="44.19641" lon="5.02339">
        <ele>230</ele>
        <time>2020-11-26T08:42:18Z</time>
      </trkpt>
      <trkpt lat="44.1964" lon="5.02339">
        <ele>229.9</ele>
        <time>2020-11-26T08:42:19Z</time>
      </trkpt>
      <trkpt lat="44.19639" lon="5.0234">
        <ele>230.1</ele>
        <time>2020-11-26T08:42:20Z</time>
      </trkpt>
      <trkpt lat="44.19638" lon="5.0234">
        <ele>230</ele>
        <time>2020-11-26T08:42:21Z</time>
      </trkpt>
      <trkpt lat="44.19636" lon="5.02341">
        <ele>230.2</ele>
        <time>2020-11-26T08:42:22Z</time>
      </trkpt>
      <trkpt lat="44.19617" lon="5.02344">
        <ele>229.9</ele>
        <time>2020-11-26T08:42:39Z</time>
      </trkpt>
      <trkpt lat="44.19595" lon="5.02345">
        <ele>229.2</ele>
        <time>2020-11-26T08:42:57Z</time>
      </trkpt>
      <trkpt lat="44.19594" lon="5.02344">
        <ele>228.9</ele>
        <time>2020-11-26T08:43:14Z</time>
      </trkpt>
      <trkpt lat="44.1959" lon="5.02344">
        <ele>228.7</ele>
        <time>2020-11-26T08:44:11Z</time>
      </trkpt>
      <trkpt lat="44.19569" lon="5.02344">
        <ele>229</ele>
        <time>2020-11-26T08:44:31Z</time>
      </trkpt>
      <trkpt lat="44.19546" lon="5.02341">
        <ele>229.2</ele>
        <time>2020-11-26T08:44:49Z</time>
      </trkpt>
      <trkpt lat="44.19524" lon="5.0234">
        <ele>229.8</ele>
        <time>2020-11-26T08:45:06Z</time>
      </trkpt>
      <trkpt lat="44.19505" lon="5.02336">
        <ele>229.5</ele>
        <time>2020-11-26T08:45:21Z</time>
      </trkpt>
      <trkpt lat="44.19486" lon="5.02335">
        <ele>231.3</ele>
        <time>2020-11-26T08:45:37Z</time>
      </trkpt>
      <trkpt lat="44.19465" lon="5.02329">
        <ele>232.9</ele>
        <time>2020-11-26T08:45:55Z</time>
      </trkpt>
      <trkpt lat="44.19443" lon="5.02327">
        <ele>235.4</ele>
        <time>2020-11-26T08:46:14Z</time>
      </trkpt>
      <trkpt lat="44.19425" lon="5.02319">
        <ele>236.2</ele>
        <time>2020-11-26T08:46:31Z</time>
      </trkpt>
      <trkpt lat="44.19409" lon="5.02311">
        <ele>236.6</ele>
        <time>2020-11-26T08:46:47Z</time>
      </trkpt>
      <trkpt lat="44.19391" lon="5.02301">
        <ele>236.5</ele>
        <time>2020-11-26T08:47:03Z</time>
      </trkpt>
      <trkpt lat="44.19375" lon="5.0229">
        <ele>235.6</ele>
        <time>2020-11-26T08:47:21Z</time>
      </trkpt>
      <trkpt lat="44.19361" lon="5.0228">
        <ele>234.4</ele>
        <time>2020-11-26T08:47:36Z</time>
      </trkpt>
      <trkpt lat="44.19339" lon="5.02274">
        <ele>234.5</ele>
        <time>2020-11-26T08:47:53Z</time>
      </trkpt>
      <trkpt lat="44.19319" lon="5.02272">
        <ele>235.4</ele>
        <time>2020-11-26T08:48:11Z</time>
      </trkpt>
      <trkpt lat="44.19301" lon="5.02266">
        <ele>235</ele>
        <time>2020-11-26T08:48:27Z</time>
      </trkpt>
      <trkpt lat="44.19283" lon="5.02258">
        <ele>234.3</ele>
        <time>2020-11-26T08:48:43Z</time>
      </trkpt>
      <trkpt lat="44.19282" lon="5.02258">
        <ele>234.4</ele>
        <time>2020-11-26T08:48:44Z</time>
      </trkpt>
      <trkpt lat="44.19281" lon="5.02258">
        <ele>234.5</ele>
        <time>2020-11-26T08:48:45Z</time>
      </trkpt>
      <trkpt lat="44.19279" lon="5.02258">
        <ele>234.6</ele>
        <time>2020-11-26T08:48:46Z</time>
      </trkpt>
      <trkpt lat="44.19265" lon="5.02263">
        <ele>237</ele>
        <time>2020-11-26T08:49:06Z</time>
      </trkpt>
      <trkpt lat="44.19267" lon="5.02262">
        <ele>236.6</ele>
        <time>2020-11-26T08:49:43Z</time>
      </trkpt>
      <trkpt lat="44.19268" lon="5.02275">
        <ele>239.7</ele>
        <time>2020-11-26T08:50:04Z</time>
      </trkpt>
      <trkpt lat="44.1927" lon="5.02292">
        <ele>243.9</ele>
        <time>2020-11-26T08:50:20Z</time>
      </trkpt>
      <trkpt lat="44.1927" lon="5.023">
        <ele>245.9</ele>
        <time>2020-11-26T08:50:30Z</time>
      </trkpt>
      <trkpt lat="44.19264" lon="5.02316">
        <ele>250.2</ele>
        <time>2020-11-26T08:50:47Z</time>
      </trkpt>
      <trkpt lat="44.19254" lon="5.02322">
        <ele>252.1</ele>
        <time>2020-11-26T08:51:02Z</time>
      </trkpt>
      <trkpt lat="44.1924" lon="5.02325">
        <ele>253.2</ele>
        <time>2020-11-26T08:51:20Z</time>
      </trkpt>
      <trkpt lat="44.19228" lon="5.02325">
        <ele>253.4</ele>
        <time>2020-11-26T08:51:38Z</time>
      </trkpt>
      <trkpt lat="44.1922" lon="5.02331">
        <ele>254.8</ele>
        <time>2020-11-26T08:51:54Z</time>
      </trkpt>
      <trkpt lat="44.19213" lon="5.02342">
        <ele>258.4</ele>
        <time>2020-11-26T08:52:14Z</time>
      </trkpt>
      <trkpt lat="44.19203" lon="5.02356">
        <ele>263.1</ele>
        <time>2020-11-26T08:52:35Z</time>
      </trkpt>
      <trkpt lat="44.19195" lon="5.02368">
        <ele>266.9</ele>
        <time>2020-11-26T08:53:01Z</time>
      </trkpt>
      <trkpt lat="44.19196" lon="5.02367">
        <ele>266.6</ele>
        <time>2020-11-26T08:53:38Z</time>
      </trkpt>
      <trkpt lat="44.19196" lon="5.02364">
        <ele>265.6</ele>
        <time>2020-11-26T08:54:11Z</time>
      </trkpt>
      <trkpt lat="44.19186" lon="5.02361">
        <ele>264.5</ele>
        <time>2020-11-26T08:54:36Z</time>
      </trkpt>
      <trkpt lat="44.19176" lon="5.02369">
        <ele>266.9</ele>
        <time>2020-11-26T08:55:08Z</time>
      </trkpt>
      <trkpt lat="44.19184" lon="5.02382">
        <ele>271.1</ele>
        <time>2020-11-26T08:55:24Z</time>
      </trkpt>
      <trkpt lat="44.19195" lon="5.02381">
        <ele>271.1</ele>
        <time>2020-11-26T08:55:34Z</time>
      </trkpt>
      <trkpt lat="44.192" lon="5.0238">
        <ele>270.9</ele>
        <time>2020-11-26T08:55:38Z</time>
      </trkpt>
      <trkpt lat="44.19205" lon="5.0238">
        <ele>271.1</ele>
        <time>2020-11-26T08:55:42Z</time>
      </trkpt>
      <trkpt lat="44.19218" lon="5.02385">
        <ele>273.2</ele>
        <time>2020-11-26T08:55:55Z</time>
      </trkpt>
      <trkpt lat="44.19227" lon="5.02395">
        <ele>277</ele>
        <time>2020-11-26T08:56:09Z</time>
      </trkpt>
      <trkpt lat="44.19228" lon="5.02405">
        <ele>280.6</ele>
        <time>2020-11-26T08:56:25Z</time>
      </trkpt>
      <trkpt lat="44.19223" lon="5.02412">
        <ele>282.8</ele>
        <time>2020-11-26T08:56:42Z</time>
      </trkpt>
      <trkpt lat="44.19215" lon="5.02421">
        <ele>285.4</ele>
        <time>2020-11-26T08:57:02Z</time>
      </trkpt>
      <trkpt lat="44.1922" lon="5.02431">
        <ele>289</ele>
        <time>2020-11-26T08:57:18Z</time>
      </trkpt>
      <trkpt lat="44.1923" lon="5.02442">
        <ele>292.7</ele>
        <time>2020-11-26T08:57:42Z</time>
      </trkpt>
      <trkpt lat="44.19231" lon="5.02443">
        <ele>293.1</ele>
        <time>2020-11-26T08:57:43Z</time>
      </trkpt>
      <trkpt lat="44.19248" lon="5.02449">
        <ele>294.9</ele>
        <time>2020-11-26T08:57:57Z</time>
      </trkpt>
      <trkpt lat="44.19256" lon="5.02448">
        <ele>294.3</ele>
        <time>2020-11-26T08:58:04Z</time>
      </trkpt>
      <trkpt lat="44.19271" lon="5.02449">
        <ele>293.7</ele>
        <time>2020-11-26T08:58:19Z</time>
      </trkpt>
      <trkpt lat="44.19288" lon="5.02455">
        <ele>294.2</ele>
        <time>2020-11-26T08:58:37Z</time>
      </trkpt>
      <trkpt lat="44.193" lon="5.0247">
        <ele>297</ele>
        <time>2020-11-26T08:58:52Z</time>
      </trkpt>
      <trkpt lat="44.19302" lon="5.02485">
        <ele>300.4</ele>
        <time>2020-11-26T08:59:05Z</time>
      </trkpt>
      <trkpt lat="44.19302" lon="5.02486">
        <ele>300.7</ele>
        <time>2020-11-26T08:59:06Z</time>
      </trkpt>
      <trkpt lat="44.19302" lon="5.02507">
        <ele>305.2</ele>
        <time>2020-11-26T08:59:27Z</time>
      </trkpt>
      <trkpt lat="44.19311" lon="5.02515">
        <ele>305.7</ele>
        <time>2020-11-26T08:59:47Z</time>
      </trkpt>
      <trkpt lat="44.19312" lon="5.02515">
        <ele>305.7</ele>
        <time>2020-11-26T08:59:49Z</time>
      </trkpt>
      <trkpt lat="44.1932" lon="5.02518">
        <ele>305.5</ele>
        <time>2020-11-26T09:00:00Z</time>
      </trkpt>
      <trkpt lat="44.1933" lon="5.02528">
        <ele>306.3</ele>
        <time>2020-11-26T09:00:15Z</time>
      </trkpt>
      <trkpt lat="44.19338" lon="5.02537">
        <ele>307.4</ele>
        <time>2020-11-26T09:00:31Z</time>
      </trkpt>
      <trkpt lat="44.19346" lon="5.02542">
        <ele>307.9</ele>
        <time>2020-11-26T09:00:45Z</time>
      </trkpt>
      <trkpt lat="44.19349" lon="5.02543">
        <ele>307.9</ele>
        <time>2020-11-26T09:00:48Z</time>
      </trkpt>
      <trkpt lat="44.19354" lon="5.02556">
        <ele>310.4</ele>
        <time>2020-11-26T09:01:05Z</time>
      </trkpt>
      <trkpt lat="44.19353" lon="5.02557">
        <ele>310.7</ele>
        <time>2020-11-26T09:01:08Z</time>
      </trkpt>
      <trkpt lat="44.19335" lon="5.02577">
        <ele>314.9</ele>
        <time>2020-11-26T09:01:34Z</time>
      </trkpt>
      <trkpt lat="44.19305" lon="5.02581">
        <ele>317.6</ele>
        <time>2020-11-26T09:02:02Z</time>
      </trkpt>
      <trkpt lat="44.19303" lon="5.0258">
        <ele>317.6</ele>
        <time>2020-11-26T09:02:04Z</time>
      </trkpt>
      <trkpt lat="44.19287" lon="5.02571">
        <ele>317.3</ele>
        <time>2020-11-26T09:02:25Z</time>
      </trkpt>
      <trkpt lat="44.1927" lon="5.02571">
        <ele>318.6</ele>
        <time>2020-11-26T09:02:51Z</time>
      </trkpt>
      <trkpt lat="44.19256" lon="5.0257">
        <ele>319.5</ele>
        <time>2020-11-26T09:03:09Z</time>
      </trkpt>
      <trkpt lat="44.19241" lon="5.0256">
        <ele>320</ele>
        <time>2020-11-26T09:03:25Z</time>
      </trkpt>
      <trkpt lat="44.19222" lon="5.02541">
        <ele>319.7</ele>
        <time>2020-11-26T09:03:52Z</time>
      </trkpt>
      <trkpt lat="44.19207" lon="5.02529">
        <ele>319.4</ele>
        <time>2020-11-26T09:04:14Z</time>
      </trkpt>
      <trkpt lat="44.19188" lon="5.02537">
        <ele>324</ele>
        <time>2020-11-26T09:04:37Z</time>
      </trkpt>
      <trkpt lat="44.19188" lon="5.02539">
        <ele>324.5</ele>
        <time>2020-11-26T09:04:39Z</time>
      </trkpt>
      <trkpt lat="44.1918" lon="5.0255">
        <ele>328.6</ele>
        <time>2020-11-26T09:04:58Z</time>
      </trkpt>
      <trkpt lat="44.19177" lon="5.02555">
        <ele>330.4</ele>
        <time>2020-11-26T09:05:06Z</time>
      </trkpt>
      <trkpt lat="44.19181" lon="5.02568">
        <ele>333</ele>
        <time>2020-11-26T09:05:29Z</time>
      </trkpt>
      <trkpt lat="44.19182" lon="5.0257">
        <ele>333.3</ele>
        <time>2020-11-26T09:05:31Z</time>
      </trkpt>
      <trkpt lat="44.19192" lon="5.02587">
        <ele>336</ele>
        <time>2020-11-26T09:05:52Z</time>
      </trkpt>
      <trkpt lat="44.19203" lon="5.02601">
        <ele>339.1</ele>
        <time>2020-11-26T09:06:12Z</time>
      </trkpt>
      <trkpt lat="44.19204" lon="5.02604">
        <ele>340</ele>
        <time>2020-11-26T09:06:15Z</time>
      </trkpt>
      <trkpt lat="44.19216" lon="5.02624">
        <ele>345.2</ele>
        <time>2020-11-26T09:06:41Z</time>
      </trkpt>
      <trkpt lat="44.19218" lon="5.02633">
        <ele>348.2</ele>
        <time>2020-11-26T09:07:00Z</time>
      </trkpt>
      <trkpt lat="44.19221" lon="5.0265">
        <ele>354.1</ele>
        <time>2020-11-26T09:07:19Z</time>
      </trkpt>
      <trkpt lat="44.19214" lon="5.02645">
        <ele>353.8</ele>
        <time>2020-11-26T09:07:39Z</time>
      </trkpt>
      <trkpt lat="44.19199" lon="5.02641">
        <ele>355.6</ele>
        <time>2020-11-26T09:08:02Z</time>
      </trkpt>
      <trkpt lat="44.19189" lon="5.02637">
        <ele>356.3</ele>
        <time>2020-11-26T09:08:22Z</time>
      </trkpt>
      <trkpt lat="44.19178" lon="5.02644">
        <ele>361.5</ele>
        <time>2020-11-26T09:08:41Z</time>
      </trkpt>
      <trkpt lat="44.19169" lon="5.02649">
        <ele>365.5</ele>
        <time>2020-11-26T09:08:58Z</time>
      </trkpt>
      <trkpt lat="44.19158" lon="5.02645">
        <ele>364.3</ele>
        <time>2020-11-26T09:09:18Z</time>
      </trkpt>
      <trkpt lat="44.19146" lon="5.02648">
        <ele>365.3</ele>
        <time>2020-11-26T09:09:36Z</time>
      </trkpt>
      <trkpt lat="44.19134" lon="5.02656">
        <ele>368.2</ele>
        <time>2020-11-26T09:09:58Z</time>
      </trkpt>
      <trkpt lat="44.1912" lon="5.02663">
        <ele>370.5</ele>
        <time>2020-11-26T09:10:19Z</time>
      </trkpt>
      <trkpt lat="44.19109" lon="5.02664">
        <ele>370.6</ele>
        <time>2020-11-26T09:10:40Z</time>
      </trkpt>
      <trkpt lat="44.19097" lon="5.02666">
        <ele>371.1</ele>
        <time>2020-11-26T09:11:02Z</time>
      </trkpt>
      <trkpt lat="44.19086" lon="5.02676">
        <ele>374.5</ele>
        <time>2020-11-26T09:11:25Z</time>
      </trkpt>
      <trkpt lat="44.19075" lon="5.02683">
        <ele>376.8</ele>
        <time>2020-11-26T09:11:43Z</time>
      </trkpt>
      <trkpt lat="44.19062" lon="5.02696">
        <ele>381</ele>
        <time>2020-11-26T09:12:06Z</time>
      </trkpt>
      <trkpt lat="44.19053" lon="5.02704">
        <ele>383.4</ele>
        <time>2020-11-26T09:12:24Z</time>
      </trkpt>
      <trkpt lat="44.19043" lon="5.02711">
        <ele>385.2</ele>
        <time>2020-11-26T09:12:44Z</time>
      </trkpt>
      <trkpt lat="44.19035" lon="5.02726">
        <ele>389.6</ele>
        <time>2020-11-26T09:13:07Z</time>
      </trkpt>
      <trkpt lat="44.19027" lon="5.02736">
        <ele>392.2</ele>
        <time>2020-11-26T09:13:27Z</time>
      </trkpt>
      <trkpt lat="44.19023" lon="5.02748">
        <ele>395.6</ele>
        <time>2020-11-26T09:13:46Z</time>
      </trkpt>
      <trkpt lat="44.19015" lon="5.02764">
        <ele>396.3</ele>
        <time>2020-11-26T09:14:07Z</time>
      </trkpt>
      <trkpt lat="44.19004" lon="5.02781">
        <ele>396.3</ele>
        <time>2020-11-26T09:14:32Z</time>
      </trkpt>
      <trkpt lat="44.19001" lon="5.02789">
        <ele>396.4</ele>
        <time>2020-11-26T09:14:56Z</time>
      </trkpt>
      <trkpt lat="44.19004" lon="5.02788">
        <ele>396.7</ele>
        <time>2020-11-26T09:15:51Z</time>
      </trkpt>
      <trkpt lat="44.19001" lon="5.0279">
        <ele>396.5</ele>
        <time>2020-11-26T09:18:37Z</time>
      </trkpt>
      <trkpt lat="44.18998" lon="5.02792">
        <ele>396.2</ele>
        <time>2020-11-26T09:18:59Z</time>
      </trkpt>
      <trkpt lat="44.18979" lon="5.02787">
        <ele>393.3</ele>
        <time>2020-11-26T09:19:21Z</time>
      </trkpt>
      <trkpt lat="44.18958" lon="5.02785">
        <ele>390.4</ele>
        <time>2020-11-26T09:19:45Z</time>
      </trkpt>
      <trkpt lat="44.18942" lon="5.0279">
        <ele>388.2</ele>
        <time>2020-11-26T09:20:06Z</time>
      </trkpt>
      <trkpt lat="44.18928" lon="5.02782">
        <ele>386.4</ele>
        <time>2020-11-26T09:20:31Z</time>
      </trkpt>
      <trkpt lat="44.18919" lon="5.02766">
        <ele>385.7</ele>
        <time>2020-11-26T09:20:48Z</time>
      </trkpt>
      <trkpt lat="44.18907" lon="5.02753">
        <ele>385.4</ele>
        <time>2020-11-26T09:21:07Z</time>
      </trkpt>
      <trkpt lat="44.18898" lon="5.02747">
        <ele>384.5</ele>
        <time>2020-11-26T09:21:16Z</time>
      </trkpt>
      <trkpt lat="44.18877" lon="5.02747">
        <ele>383.5</ele>
        <time>2020-11-26T09:21:35Z</time>
      </trkpt>
      <trkpt lat="44.18869" lon="5.0275">
        <ele>383.7</ele>
        <time>2020-11-26T09:21:42Z</time>
      </trkpt>
      <trkpt lat="44.1885" lon="5.02757">
        <ele>382.1</ele>
        <time>2020-11-26T09:22:01Z</time>
      </trkpt>
      <trkpt lat="44.1883" lon="5.02764">
        <ele>379.9</ele>
        <time>2020-11-26T09:22:22Z</time>
      </trkpt>
      <trkpt lat="44.18815" lon="5.02767">
        <ele>377.9</ele>
        <time>2020-11-26T09:22:39Z</time>
      </trkpt>
      <trkpt lat="44.18795" lon="5.02763">
        <ele>376.2</ele>
        <time>2020-11-26T09:23:03Z</time>
      </trkpt>
      <trkpt lat="44.18786" lon="5.02763">
        <ele>375.2</ele>
        <time>2020-11-26T09:23:27Z</time>
      </trkpt>
      <trkpt lat="44.18767" lon="5.0275">
        <ele>374.8</ele>
        <time>2020-11-26T09:23:51Z</time>
      </trkpt>
      <trkpt lat="44.18761" lon="5.02743">
        <ele>373.4</ele>
        <time>2020-11-26T09:24:01Z</time>
      </trkpt>
      <trkpt lat="44.18744" lon="5.02725">
        <ele>369.6</ele>
        <time>2020-11-26T09:24:25Z</time>
      </trkpt>
      <trkpt lat="44.18723" lon="5.02713">
        <ele>365.6</ele>
        <time>2020-11-26T09:24:48Z</time>
      </trkpt>
      <trkpt lat="44.18705" lon="5.02697">
        <ele>363</ele>
        <time>2020-11-26T09:25:13Z</time>
      </trkpt>
      <trkpt lat="44.18688" lon="5.02665">
        <ele>361.7</ele>
        <time>2020-11-26T09:25:35Z</time>
      </trkpt>
      <trkpt lat="44.18684" lon="5.02655">
        <ele>359.5</ele>
        <time>2020-11-26T09:25:42Z</time>
      </trkpt>
      <trkpt lat="44.18665" lon="5.02645">
        <ele>357</ele>
        <time>2020-11-26T09:26:01Z</time>
      </trkpt>
      <trkpt lat="44.18648" lon="5.02636">
        <ele>354.6</ele>
        <time>2020-11-26T09:26:18Z</time>
      </trkpt>
      <trkpt lat="44.18639" lon="5.02635">
        <ele>354</ele>
        <time>2020-11-26T09:26:28Z</time>
      </trkpt>
      <trkpt lat="44.18626" lon="5.02641">
        <ele>354.2</ele>
        <time>2020-11-26T09:26:40Z</time>
      </trkpt>
      <trkpt lat="44.18624" lon="5.02647">
        <ele>354.8</ele>
        <time>2020-11-26T09:26:45Z</time>
      </trkpt>
      <trkpt lat="44.18627" lon="5.02668">
        <ele>357.5</ele>
        <time>2020-11-26T09:27:01Z</time>
      </trkpt>
      <trkpt lat="44.18637" lon="5.0269">
        <ele>355.2</ele>
        <time>2020-11-26T09:27:21Z</time>
      </trkpt>
      <trkpt lat="44.18646" lon="5.02704">
        <ele>354.8</ele>
        <time>2020-11-26T09:27:50Z</time>
      </trkpt>
      <trkpt lat="44.18658" lon="5.02727">
        <ele>354.7</ele>
        <time>2020-11-26T09:28:14Z</time>
      </trkpt>
      <trkpt lat="44.18667" lon="5.0276">
        <ele>353.3</ele>
        <time>2020-11-26T09:28:40Z</time>
      </trkpt>
      <trkpt lat="44.1868" lon="5.02776">
        <ele>353.3</ele>
        <time>2020-11-26T09:29:02Z</time>
      </trkpt>
      <trkpt lat="44.18692" lon="5.02792">
        <ele>353.4</ele>
        <time>2020-11-26T09:29:25Z</time>
      </trkpt>
      <trkpt lat="44.18696" lon="5.02812">
        <ele>351</ele>
        <time>2020-11-26T09:29:50Z</time>
      </trkpt>
      <trkpt lat="44.18697" lon="5.02825">
        <ele>349</ele>
        <time>2020-11-26T09:30:20Z</time>
      </trkpt>
      <trkpt lat="44.18699" lon="5.0286">
        <ele>342.6</ele>
        <time>2020-11-26T09:30:47Z</time>
      </trkpt>
      <trkpt lat="44.187" lon="5.02877">
        <ele>339.2</ele>
        <time>2020-11-26T09:30:59Z</time>
      </trkpt>
      <trkpt lat="44.18709" lon="5.02893">
        <ele>337.4</ele>
        <time>2020-11-26T09:31:13Z</time>
      </trkpt>
      <trkpt lat="44.18725" lon="5.0291">
        <ele>336</ele>
        <time>2020-11-26T09:31:36Z</time>
      </trkpt>
      <trkpt lat="44.18733" lon="5.02916">
        <ele>335.7</ele>
        <time>2020-11-26T09:31:45Z</time>
      </trkpt>
      <trkpt lat="44.18746" lon="5.02924">
        <ele>335.3</ele>
        <time>2020-11-26T09:31:59Z</time>
      </trkpt>
      <trkpt lat="44.18755" lon="5.02929">
        <ele>335</ele>
        <time>2020-11-26T09:32:08Z</time>
      </trkpt>
      <trkpt lat="44.18777" lon="5.0294">
        <ele>334.1</ele>
        <time>2020-11-26T09:32:32Z</time>
      </trkpt>
      <trkpt lat="44.18794" lon="5.02946">
        <ele>334.1</ele>
        <time>2020-11-26T09:32:48Z</time>
      </trkpt>
      <trkpt lat="44.18799" lon="5.02947">
        <ele>334.3</ele>
        <time>2020-11-26T09:32:52Z</time>
      </trkpt>
      <trkpt lat="44.18802" lon="5.02948">
        <ele>334.4</ele>
        <time>2020-11-26T09:32:56Z</time>
      </trkpt>
      <trkpt lat="44.18822" lon="5.0295">
        <ele>335.8</ele>
        <time>2020-11-26T09:33:12Z</time>
      </trkpt>
      <trkpt lat="44.18834" lon="5.02952">
        <ele>336.5</ele>
        <time>2020-11-26T09:33:23Z</time>
      </trkpt>
      <trkpt lat="44.18846" lon="5.02961">
        <ele>335.9</ele>
        <time>2020-11-26T09:33:37Z</time>
      </trkpt>
      <trkpt lat="44.18854" lon="5.02969">
        <ele>334.7</ele>
        <time>2020-11-26T09:33:48Z</time>
      </trkpt>
      <trkpt lat="44.18858" lon="5.02974">
        <ele>333.8</ele>
        <time>2020-11-26T09:33:53Z</time>
      </trkpt>
      <trkpt lat="44.18869" lon="5.02999">
        <ele>327.5</ele>
        <time>2020-11-26T09:34:14Z</time>
      </trkpt>
      <trkpt lat="44.18881" lon="5.03006">
        <ele>327.1</ele>
        <time>2020-11-26T09:34:26Z</time>
      </trkpt>
      <trkpt lat="44.18894" lon="5.0301">
        <ele>327.8</ele>
        <time>2020-11-26T09:34:41Z</time>
      </trkpt>
      <trkpt lat="44.18906" lon="5.0301">
        <ele>329.4</ele>
        <time>2020-11-26T09:34:53Z</time>
      </trkpt>
      <trkpt lat="44.18909" lon="5.0301">
        <ele>329.8</ele>
        <time>2020-11-26T09:34:59Z</time>
      </trkpt>
      <trkpt lat="44.18914" lon="5.03011">
        <ele>330.2</ele>
        <time>2020-11-26T09:35:03Z</time>
      </trkpt>
      <trkpt lat="44.18936" lon="5.03017">
        <ele>332.1</ele>
        <time>2020-11-26T09:35:18Z</time>
      </trkpt>
      <trkpt lat="44.18937" lon="5.03018">
        <ele>332</ele>
        <time>2020-11-26T09:35:19Z</time>
      </trkpt>
      <trkpt lat="44.18948" lon="5.03033">
        <ele>329.4</ele>
        <time>2020-11-26T09:35:36Z</time>
      </trkpt>
      <trkpt lat="44.1896" lon="5.03046">
        <ele>327.8</ele>
        <time>2020-11-26T09:35:47Z</time>
      </trkpt>
      <trkpt lat="44.18973" lon="5.03057">
        <ele>327.1</ele>
        <time>2020-11-26T09:36:03Z</time>
      </trkpt>
      <trkpt lat="44.18985" lon="5.03067">
        <ele>326.6</ele>
        <time>2020-11-26T09:36:16Z</time>
      </trkpt>
      <trkpt lat="44.18995" lon="5.03077">
        <ele>325.7</ele>
        <time>2020-11-26T09:36:30Z</time>
      </trkpt>
      <trkpt lat="44.19014" lon="5.03081">
        <ele>329.1</ele>
        <time>2020-11-26T09:36:46Z</time>
      </trkpt>
      <trkpt lat="44.19039" lon="5.03077">
        <ele>336</ele>
        <time>2020-11-26T09:37:13Z</time>
      </trkpt>
      <trkpt lat="44.19058" lon="5.03063">
        <ele>342.5</ele>
        <time>2020-11-26T09:37:31Z</time>
      </trkpt>
      <trkpt lat="44.19066" lon="5.03061">
        <ele>344.4</ele>
        <time>2020-11-26T09:37:46Z</time>
      </trkpt>
      <trkpt lat="44.19058" lon="5.03068">
        <ele>341.8</ele>
        <time>2020-11-26T09:37:59Z</time>
      </trkpt>
      <trkpt lat="44.19046" lon="5.0307">
        <ele>338.9</ele>
        <time>2020-11-26T09:38:14Z</time>
      </trkpt>
      <trkpt lat="44.19042" lon="5.03082">
        <ele>335.8</ele>
        <time>2020-11-26T09:38:27Z</time>
      </trkpt>
      <trkpt lat="44.19025" lon="5.03089">
        <ele>331.2</ele>
        <time>2020-11-26T09:38:40Z</time>
      </trkpt>
      <trkpt lat="44.19018" lon="5.03095">
        <ele>329.2</ele>
        <time>2020-11-26T09:38:46Z</time>
      </trkpt>
      <trkpt lat="44.19013" lon="5.03097">
        <ele>327.8</ele>
        <time>2020-11-26T09:38:51Z</time>
      </trkpt>
      <trkpt lat="44.19011" lon="5.03098">
        <ele>327.2</ele>
        <time>2020-11-26T09:38:53Z</time>
      </trkpt>
      <trkpt lat="44.19001" lon="5.031">
        <ele>324.3</ele>
        <time>2020-11-26T09:39:05Z</time>
      </trkpt>
      <trkpt lat="44.18993" lon="5.03099">
        <ele>322.5</ele>
        <time>2020-11-26T09:39:12Z</time>
      </trkpt>
      <trkpt lat="44.18979" lon="5.03096">
        <ele>319.5</ele>
        <time>2020-11-26T09:39:25Z</time>
      </trkpt>
      <trkpt lat="44.18978" lon="5.03096">
        <ele>319.3</ele>
        <time>2020-11-26T09:39:26Z</time>
      </trkpt>
      <trkpt lat="44.18962" lon="5.0309">
        <ele>316.4</ele>
        <time>2020-11-26T09:39:52Z</time>
      </trkpt>
      <trkpt lat="44.18961" lon="5.03089">
        <ele>316.4</ele>
        <time>2020-11-26T09:40:18Z</time>
      </trkpt>
      <trkpt lat="44.18962" lon="5.0309">
        <ele>316.4</ele>
        <time>2020-11-26T09:40:37Z</time>
      </trkpt>
      <trkpt lat="44.1896" lon="5.03084">
        <ele>316.8</ele>
        <time>2020-11-26T09:41:21Z</time>
      </trkpt>
      <trkpt lat="44.18952" lon="5.0308">
        <ele>316.2</ele>
        <time>2020-11-26T09:41:42Z</time>
      </trkpt>
      <trkpt lat="44.18946" lon="5.03078">
        <ele>315.6</ele>
        <time>2020-11-26T09:41:47Z</time>
      </trkpt>
      <trkpt lat="44.18932" lon="5.03064">
        <ele>317</ele>
        <time>2020-11-26T09:42:07Z</time>
      </trkpt>
      <trkpt lat="44.18922" lon="5.03075">
        <ele>311.7</ele>
        <time>2020-11-26T09:42:24Z</time>
      </trkpt>
      <trkpt lat="44.18925" lon="5.03079">
        <ele>311</ele>
        <time>2020-11-26T09:42:29Z</time>
      </trkpt>
      <trkpt lat="44.18945" lon="5.03104">
        <ele>310.7</ele>
        <time>2020-11-26T09:42:54Z</time>
      </trkpt>
      <trkpt lat="44.18947" lon="5.03107">
        <ele>310.8</ele>
        <time>2020-11-26T09:42:58Z</time>
      </trkpt>
      <trkpt lat="44.18959" lon="5.03116">
        <ele>312.6</ele>
        <time>2020-11-26T09:43:13Z</time>
      </trkpt>
      <trkpt lat="44.18969" lon="5.03128">
        <ele>313.8</ele>
        <time>2020-11-26T09:43:28Z</time>
      </trkpt>
      <trkpt lat="44.18975" lon="5.03134">
        <ele>314.9</ele>
        <time>2020-11-26T09:43:38Z</time>
      </trkpt>
      <trkpt lat="44.18976" lon="5.03135">
        <ele>315</ele>
        <time>2020-11-26T09:43:39Z</time>
      </trkpt>
      <trkpt lat="44.18965" lon="5.0315">
        <ele>310.2</ele>
        <time>2020-11-26T09:44:01Z</time>
      </trkpt>
      <trkpt lat="44.18949" lon="5.03154">
        <ele>304.6</ele>
        <time>2020-11-26T09:44:27Z</time>
      </trkpt>
      <trkpt lat="44.18935" lon="5.03164">
        <ele>298.6</ele>
        <time>2020-11-26T09:44:51Z</time>
      </trkpt>
      <trkpt lat="44.18918" lon="5.03175">
        <ele>291.7</ele>
        <time>2020-11-26T09:45:15Z</time>
      </trkpt>
      <trkpt lat="44.18908" lon="5.03185">
        <ele>289.8</ele>
        <time>2020-11-26T09:45:37Z</time>
      </trkpt>
      <trkpt lat="44.18911" lon="5.0319">
        <ele>289.4</ele>
        <time>2020-11-26T09:45:44Z</time>
      </trkpt>
      <trkpt lat="44.18915" lon="5.03197">
        <ele>289</ele>
        <time>2020-11-26T09:45:50Z</time>
      </trkpt>
      <trkpt lat="44.18923" lon="5.03222">
        <ele>289</ele>
        <time>2020-11-26T09:46:10Z</time>
      </trkpt>
      <trkpt lat="44.18928" lon="5.03244">
        <ele>288.9</ele>
        <time>2020-11-26T09:46:28Z</time>
      </trkpt>
      <trkpt lat="44.18929" lon="5.03248">
        <ele>288.9</ele>
        <time>2020-11-26T09:46:38Z</time>
      </trkpt>
      <trkpt lat="44.18934" lon="5.03261">
        <ele>288.8</ele>
        <time>2020-11-26T09:46:48Z</time>
      </trkpt>
      <trkpt lat="44.18949" lon="5.03282">
        <ele>290.2</ele>
        <time>2020-11-26T09:47:07Z</time>
      </trkpt>
      <trkpt lat="44.18959" lon="5.03302">
        <ele>289.3</ele>
        <time>2020-11-26T09:47:25Z</time>
      </trkpt>
      <trkpt lat="44.18963" lon="5.03319">
        <ele>286.8</ele>
        <time>2020-11-26T09:47:41Z</time>
      </trkpt>
      <trkpt lat="44.18969" lon="5.03346">
        <ele>283.9</ele>
        <time>2020-11-26T09:48:02Z</time>
      </trkpt>
      <trkpt lat="44.1897" lon="5.03383">
        <ele>280.2</ele>
        <time>2020-11-26T09:48:28Z</time>
      </trkpt>
      <trkpt lat="44.18975" lon="5.03411">
        <ele>278</ele>
        <time>2020-11-26T09:48:46Z</time>
      </trkpt>
      <trkpt lat="44.18981" lon="5.03438">
        <ele>278</ele>
        <time>2020-11-26T09:49:05Z</time>
      </trkpt>
      <trkpt lat="44.18988" lon="5.0346">
        <ele>278.3</ele>
        <time>2020-11-26T09:49:22Z</time>
      </trkpt>
      <trkpt lat="44.18996" lon="5.03486">
        <ele>278.2</ele>
        <time>2020-11-26T09:49:40Z</time>
      </trkpt>
      <trkpt lat="44.19003" lon="5.03507">
        <ele>278.7</ele>
        <time>2020-11-26T09:49:56Z</time>
      </trkpt>
      <trkpt lat="44.1901" lon="5.03532">
        <ele>280.5</ele>
        <time>2020-11-26T09:50:15Z</time>
      </trkpt>
      <trkpt lat="44.19012" lon="5.03543">
        <ele>281</ele>
      </trkpt>
      <trkpt lat="44.19015" lon="5.03557">
        <ele>281.5</ele>
      </trkpt>
      <trkpt lat="44.19016" lon="5.03558">
        <ele>281.6</ele>
        <time>2020-11-26T09:56:08Z</time>
      </trkpt>
      <trkpt lat="44.19024" lon="5.03597">
        <ele>283</ele>
        <time>2020-11-26T09:56:38Z</time>
      </trkpt>
      <trkpt lat="44.19032" lon="5.03625">
        <ele>284.2</ele>
        <time>2020-11-26T09:57:00Z</time>
      </trkpt>
      <trkpt lat="44.19038" lon="5.03644">
        <ele>284.8</ele>
        <time>2020-11-26T09:57:18Z</time>
      </trkpt>
      <trkpt lat="44.19044" lon="5.03678">
        <ele>286.9</ele>
        <time>2020-11-26T09:57:45Z</time>
      </trkpt>
      <trkpt lat="44.19043" lon="5.03701">
        <ele>290</ele>
        <time>2020-11-26T09:58:06Z</time>
      </trkpt>
      <trkpt lat="44.19046" lon="5.03708">
        <ele>290.9</ele>
        <time>2020-11-26T09:58:27Z</time>
      </trkpt>
      <trkpt lat="44.19062" lon="5.03726">
        <ele>293.5</ele>
        <time>2020-11-26T09:58:46Z</time>
      </trkpt>
      <trkpt lat="44.19075" lon="5.0374">
        <ele>296</ele>
        <time>2020-11-26T09:59:02Z</time>
      </trkpt>
      <trkpt lat="44.19093" lon="5.03757">
        <ele>297.8</ele>
        <time>2020-11-26T09:59:23Z</time>
      </trkpt>
      <trkpt lat="44.19111" lon="5.03779">
        <ele>298.1</ele>
        <time>2020-11-26T09:59:50Z</time>
      </trkpt>
      <trkpt lat="44.19113" lon="5.03789">
        <ele>298.7</ele>
        <time>2020-11-26T09:59:58Z</time>
      </trkpt>
      <trkpt lat="44.19109" lon="5.03809">
        <ele>300.3</ele>
        <time>2020-11-26T10:00:17Z</time>
      </trkpt>
      <trkpt lat="44.19093" lon="5.0382">
        <ele>301.8</ele>
        <time>2020-11-26T10:00:35Z</time>
      </trkpt>
      <trkpt lat="44.19075" lon="5.03836">
        <ele>302.9</ele>
        <time>2020-11-26T10:00:54Z</time>
      </trkpt>
      <trkpt lat="44.19067" lon="5.03842">
        <ele>302.9</ele>
        <time>2020-11-26T10:01:04Z</time>
      </trkpt>
      <trkpt lat="44.19049" lon="5.03854">
        <ele>303</ele>
        <time>2020-11-26T10:01:24Z</time>
      </trkpt>
      <trkpt lat="44.19044" lon="5.03866">
        <ele>303.3</ele>
        <time>2020-11-26T10:01:38Z</time>
      </trkpt>
      <trkpt lat="44.19034" lon="5.03891">
        <ele>304</ele>
        <time>2020-11-26T10:01:55Z</time>
      </trkpt>
      <trkpt lat="44.19025" lon="5.03909">
        <ele>304.8</ele>
        <time>2020-11-26T10:02:10Z</time>
      </trkpt>
      <trkpt lat="44.19011" lon="5.03918">
        <ele>305.7</ele>
        <time>2020-11-26T10:02:25Z</time>
      </trkpt>
      <trkpt lat="44.19004" lon="5.0392">
        <ele>306</ele>
        <time>2020-11-26T10:02:40Z</time>
      </trkpt>
      <trkpt lat="44.18994" lon="5.03928">
        <ele>305.9</ele>
        <time>2020-11-26T10:03:00Z</time>
      </trkpt>
      <trkpt lat="44.18991" lon="5.03936">
        <ele>305.9</ele>
        <time>2020-11-26T10:03:25Z</time>
      </trkpt>
      <trkpt lat="44.18989" lon="5.03936">
        <ele>305.7</ele>
        <time>2020-11-26T10:03:53Z</time>
      </trkpt>
      <trkpt lat="44.18995" lon="5.03943">
        <ele>306.7</ele>
        <time>2020-11-26T10:04:32Z</time>
      </trkpt>
      <trkpt lat="44.18994" lon="5.03938">
        <ele>306.4</ele>
        <time>2020-11-26T10:04:34Z</time>
      </trkpt>
      <trkpt lat="44.1899" lon="5.0394">
        <ele>306</ele>
        <time>2020-11-26T10:04:54Z</time>
      </trkpt>
      <trkpt lat="44.18987" lon="5.03949">
        <ele>306</ele>
        <time>2020-11-26T10:05:01Z</time>
      </trkpt>
      <trkpt lat="44.18985" lon="5.03954">
        <ele>305.9</ele>
        <time>2020-11-26T10:05:04Z</time>
      </trkpt>
      <trkpt lat="44.18983" lon="5.03988">
        <ele>306.9</ele>
        <time>2020-11-26T10:05:31Z</time>
      </trkpt>
      <trkpt lat="44.18988" lon="5.03997">
        <ele>308</ele>
        <time>2020-11-26T10:05:42Z</time>
      </trkpt>
      <trkpt lat="44.18996" lon="5.04004">
        <ele>309.4</ele>
        <time>2020-11-26T10:05:55Z</time>
      </trkpt>
      <trkpt lat="44.19017" lon="5.04012">
        <ele>310.5</ele>
        <time>2020-11-26T10:06:20Z</time>
      </trkpt>
      <trkpt lat="44.1903" lon="5.04016">
        <ele>311</ele>
        <time>2020-11-26T10:06:39Z</time>
      </trkpt>
      <trkpt lat="44.19029" lon="5.0402">
        <ele>311</ele>
        <time>2020-11-26T10:07:10Z</time>
      </trkpt>
      <trkpt lat="44.1904" lon="5.04022">
        <ele>311.5</ele>
        <time>2020-11-26T10:07:24Z</time>
      </trkpt>
      <trkpt lat="44.19042" lon="5.04023">
        <ele>311.6</ele>
        <time>2020-11-26T10:07:26Z</time>
      </trkpt>
      <trkpt lat="44.19059" lon="5.0404">
        <ele>312.8</ele>
        <time>2020-11-26T10:07:44Z</time>
      </trkpt>
      <trkpt lat="44.19078" lon="5.04061">
        <ele>314.6</ele>
        <time>2020-11-26T10:08:08Z</time>
      </trkpt>
      <trkpt lat="44.19089" lon="5.04074">
        <ele>315.8</ele>
        <time>2020-11-26T10:08:24Z</time>
      </trkpt>
      <trkpt lat="44.19103" lon="5.04096">
        <ele>317.2</ele>
        <time>2020-11-26T10:08:51Z</time>
      </trkpt>
      <trkpt lat="44.19107" lon="5.04102">
        <ele>317.6</ele>
        <time>2020-11-26T10:09:16Z</time>
      </trkpt>
      <trkpt lat="44.19107" lon="5.04103">
        <ele>317.6</ele>
        <time>2020-11-26T10:09:51Z</time>
      </trkpt>
      <trkpt lat="44.19118" lon="5.04123">
        <ele>319.4</ele>
        <time>2020-11-26T10:10:17Z</time>
      </trkpt>
      <trkpt lat="44.19119" lon="5.04126">
        <ele>319.6</ele>
        <time>2020-11-26T10:10:19Z</time>
      </trkpt>
      <trkpt lat="44.19131" lon="5.04159">
        <ele>323.1</ele>
        <time>2020-11-26T10:10:44Z</time>
      </trkpt>
      <trkpt lat="44.19139" lon="5.04191">
        <ele>326.8</ele>
        <time>2020-11-26T10:11:07Z</time>
      </trkpt>
      <trkpt lat="44.19139" lon="5.0423">
        <ele>329.6</ele>
        <time>2020-11-26T10:11:32Z</time>
      </trkpt>
      <trkpt lat="44.19137" lon="5.04269">
        <ele>332.1</ele>
        <time>2020-11-26T10:11:59Z</time>
      </trkpt>
      <trkpt lat="44.19127" lon="5.04308">
        <ele>332.8</ele>
        <time>2020-11-26T10:12:25Z</time>
      </trkpt>
      <trkpt lat="44.19114" lon="5.04343">
        <ele>332.2</ele>
        <time>2020-11-26T10:12:51Z</time>
      </trkpt>
      <trkpt lat="44.19105" lon="5.04371">
        <ele>332.7</ele>
        <time>2020-11-26T10:13:12Z</time>
      </trkpt>
      <trkpt lat="44.19099" lon="5.04404">
        <ele>334.4</ele>
        <time>2020-11-26T10:13:34Z</time>
      </trkpt>
      <trkpt lat="44.1909" lon="5.04437">
        <ele>334</ele>
        <time>2020-11-26T10:13:58Z</time>
      </trkpt>
      <trkpt lat="44.19088" lon="5.04442">
        <ele>333.7</ele>
        <time>2020-11-26T10:14:02Z</time>
      </trkpt>
      <trkpt lat="44.19088" lon="5.04486">
        <ele>335.8</ele>
        <time>2020-11-26T10:14:31Z</time>
      </trkpt>
      <trkpt lat="44.19088" lon="5.04501">
        <ele>336.6</ele>
        <time>2020-11-26T10:14:53Z</time>
      </trkpt>
      <trkpt lat="44.19093" lon="5.04525">
        <ele>339.1</ele>
        <time>2020-11-26T10:15:19Z</time>
      </trkpt>
      <trkpt lat="44.19097" lon="5.04565">
        <ele>342.2</ele>
        <time>2020-11-26T10:15:47Z</time>
      </trkpt>
      <trkpt lat="44.19095" lon="5.04586">
        <ele>342.3</ele>
        <time>2020-11-26T10:16:03Z</time>
      </trkpt>
      <trkpt lat="44.19095" lon="5.04618">
        <ele>344.1</ele>
        <time>2020-11-26T10:16:22Z</time>
      </trkpt>
      <trkpt lat="44.19091" lon="5.04642">
        <ele>343.8</ele>
        <time>2020-11-26T10:16:39Z</time>
      </trkpt>
      <trkpt lat="44.19083" lon="5.04674">
        <ele>342.7</ele>
        <time>2020-11-26T10:17:04Z</time>
      </trkpt>
      <trkpt lat="44.1908" lon="5.04683">
        <ele>343.7</ele>
        <time>2020-11-26T10:17:11Z</time>
      </trkpt>
      <trkpt lat="44.1906" lon="5.04718">
        <ele>346.5</ele>
        <time>2020-11-26T10:17:40Z</time>
      </trkpt>
      <trkpt lat="44.19046" lon="5.04743">
        <ele>347.1</ele>
        <time>2020-11-26T10:18:04Z</time>
      </trkpt>
      <trkpt lat="44.19039" lon="5.04782">
        <ele>348.3</ele>
        <time>2020-11-26T10:18:27Z</time>
      </trkpt>
      <trkpt lat="44.19046" lon="5.04802">
        <ele>349.2</ele>
        <time>2020-11-26T10:18:48Z</time>
      </trkpt>
      <trkpt lat="44.19055" lon="5.04818">
        <ele>349.6</ele>
        <time>2020-11-26T10:19:01Z</time>
      </trkpt>
      <trkpt lat="44.19071" lon="5.04833">
        <ele>349.4</ele>
        <time>2020-11-26T10:19:19Z</time>
      </trkpt>
      <trkpt lat="44.19085" lon="5.04851">
        <ele>350</ele>
        <time>2020-11-26T10:19:42Z</time>
      </trkpt>
      <trkpt lat="44.19096" lon="5.04859">
        <ele>353.5</ele>
        <time>2020-11-26T10:19:59Z</time>
      </trkpt>
      <trkpt lat="44.19115" lon="5.04874">
        <ele>358.2</ele>
        <time>2020-11-26T10:20:23Z</time>
      </trkpt>
      <trkpt lat="44.19128" lon="5.04893">
        <ele>359.5</ele>
        <time>2020-11-26T10:20:45Z</time>
      </trkpt>
      <trkpt lat="44.19149" lon="5.04914">
        <ele>360.1</ele>
        <time>2020-11-26T10:21:12Z</time>
      </trkpt>
      <trkpt lat="44.1917" lon="5.0493">
        <ele>364.6</ele>
        <time>2020-11-26T10:21:35Z</time>
      </trkpt>
      <trkpt lat="44.19182" lon="5.04942">
        <ele>368.9</ele>
        <time>2020-11-26T10:21:54Z</time>
      </trkpt>
      <trkpt lat="44.19188" lon="5.04944">
        <ele>370.4</ele>
        <time>2020-11-26T10:22:01Z</time>
      </trkpt>
      <trkpt lat="44.19196" lon="5.04951">
        <ele>372.4</ele>
        <time>2020-11-26T10:22:09Z</time>
      </trkpt>
      <trkpt lat="44.19212" lon="5.0497">
        <ele>374.8</ele>
        <time>2020-11-26T10:22:33Z</time>
      </trkpt>
      <trkpt lat="44.19235" lon="5.04988">
        <ele>375.4</ele>
        <time>2020-11-26T10:23:00Z</time>
      </trkpt>
      <trkpt lat="44.1925" lon="5.05006">
        <ele>374.6</ele>
        <time>2020-11-26T10:23:24Z</time>
      </trkpt>
      <trkpt lat="44.19269" lon="5.05022">
        <ele>381.7</ele>
        <time>2020-11-26T10:23:47Z</time>
      </trkpt>
      <trkpt lat="44.19283" lon="5.05039">
        <ele>385.9</ele>
        <time>2020-11-26T10:24:09Z</time>
      </trkpt>
      <trkpt lat="44.19299" lon="5.05052">
        <ele>389.3</ele>
        <time>2020-11-26T10:24:29Z</time>
      </trkpt>
      <trkpt lat="44.19304" lon="5.05059">
        <ele>389.9</ele>
        <time>2020-11-26T10:24:36Z</time>
      </trkpt>
      <trkpt lat="44.1931" lon="5.05087">
        <ele>389.3</ele>
        <time>2020-11-26T10:25:01Z</time>
      </trkpt>
      <trkpt lat="44.19315" lon="5.05126">
        <ele>389.7</ele>
        <time>2020-11-26T10:25:25Z</time>
      </trkpt>
      <trkpt lat="44.19317" lon="5.05154">
        <ele>389.5</ele>
        <time>2020-11-26T10:25:43Z</time>
      </trkpt>
      <trkpt lat="44.19318" lon="5.05161">
        <ele>389.3</ele>
        <time>2020-11-26T10:25:48Z</time>
      </trkpt>
      <trkpt lat="44.1932" lon="5.0518">
        <ele>389.8</ele>
        <time>2020-11-26T10:26:02Z</time>
      </trkpt>
      <trkpt lat="44.19322" lon="5.05216">
        <ele>392</ele>
        <time>2020-11-26T10:26:29Z</time>
      </trkpt>
      <trkpt lat="44.19329" lon="5.05244">
        <ele>392.5</ele>
        <time>2020-11-26T10:26:54Z</time>
      </trkpt>
      <trkpt lat="44.19332" lon="5.05271">
        <ele>393</ele>
        <time>2020-11-26T10:27:17Z</time>
      </trkpt>
      <trkpt lat="44.19332" lon="5.05314">
        <ele>394.6</ele>
        <time>2020-11-26T10:27:46Z</time>
      </trkpt>
      <trkpt lat="44.1933" lon="5.0535">
        <ele>397.1</ele>
        <time>2020-11-26T10:28:12Z</time>
      </trkpt>
      <trkpt lat="44.19331" lon="5.05363">
        <ele>398.2</ele>
        <time>2020-11-26T10:28:26Z</time>
      </trkpt>
      <trkpt lat="44.19333" lon="5.05381">
        <ele>399.6</ele>
        <time>2020-11-26T10:28:50Z</time>
      </trkpt>
      <trkpt lat="44.19331" lon="5.05379">
        <ele>399.6</ele>
        <time>2020-11-26T10:29:12Z</time>
      </trkpt>
      <trkpt lat="44.19322" lon="5.05383">
        <ele>400.9</ele>
        <time>2020-11-26T10:29:30Z</time>
      </trkpt>
      <trkpt lat="44.19318" lon="5.05391">
        <ele>401.9</ele>
        <time>2020-11-26T10:29:43Z</time>
      </trkpt>
      <trkpt lat="44.19307" lon="5.05413">
        <ele>404.1</ele>
        <time>2020-11-26T10:30:07Z</time>
      </trkpt>
      <trkpt lat="44.19298" lon="5.05425">
        <ele>405.8</ele>
        <time>2020-11-26T10:30:25Z</time>
      </trkpt>
      <trkpt lat="44.19295" lon="5.05436">
        <ele>407.2</ele>
        <time>2020-11-26T10:31:06Z</time>
      </trkpt>
      <trkpt lat="44.19284" lon="5.05452">
        <ele>408.2</ele>
        <time>2020-11-26T10:31:26Z</time>
      </trkpt>
      <trkpt lat="44.19273" lon="5.0547">
        <ele>408.2</ele>
        <time>2020-11-26T10:31:48Z</time>
      </trkpt>
      <trkpt lat="44.19268" lon="5.05474">
        <ele>407.6</ele>
        <time>2020-11-26T10:31:56Z</time>
      </trkpt>
      <trkpt lat="44.19268" lon="5.05483">
        <ele>407.9</ele>
        <time>2020-11-26T10:32:02Z</time>
      </trkpt>
      <trkpt lat="44.19261" lon="5.05487">
        <ele>406.6</ele>
        <time>2020-11-26T10:32:12Z</time>
      </trkpt>
      <trkpt lat="44.19244" lon="5.05503">
        <ele>405.4</ele>
        <time>2020-11-26T10:32:30Z</time>
      </trkpt>
      <trkpt lat="44.19242" lon="5.05515">
        <ele>406.3</ele>
        <time>2020-11-26T10:32:41Z</time>
      </trkpt>
      <trkpt lat="44.19229" lon="5.05542">
        <ele>409.7</ele>
        <time>2020-11-26T10:33:03Z</time>
      </trkpt>
      <trkpt lat="44.19225" lon="5.05544">
        <ele>410.4</ele>
        <time>2020-11-26T10:33:23Z</time>
      </trkpt>
      <trkpt lat="44.19226" lon="5.05541">
        <ele>410.2</ele>
        <time>2020-11-26T10:33:41Z</time>
      </trkpt>
      <trkpt lat="44.19224" lon="5.05541">
        <ele>410.5</ele>
        <time>2020-11-26T10:33:48Z</time>
      </trkpt>
      <trkpt lat="44.19224" lon="5.05542">
        <ele>410.5</ele>
        <time>2020-11-26T10:34:03Z</time>
      </trkpt>
      <trkpt lat="44.19212" lon="5.05535">
        <ele>412.5</ele>
        <time>2020-11-26T10:34:31Z</time>
      </trkpt>
      <trkpt lat="44.1922" lon="5.05548">
        <ele>411.4</ele>
        <time>2020-11-26T10:34:57Z</time>
      </trkpt>
      <trkpt lat="44.19226" lon="5.05561">
        <ele>410.8</ele>
        <time>2020-11-26T10:35:44Z</time>
      </trkpt>
      <trkpt lat="44.19228" lon="5.05578">
        <ele>411.1</ele>
      </trkpt>
      <trkpt lat="44.19229" lon="5.05587">
        <ele>411.4</ele>
      </trkpt>
      <trkpt lat="44.19229" lon="5.05585">
        <ele>411.2</ele>
        <time>2020-11-26T10:46:34Z</time>
      </trkpt>
      <trkpt lat="44.19237" lon="5.05601">
        <ele>411.3</ele>
        <time>2020-11-26T10:46:58Z</time>
      </trkpt>
      <trkpt lat="44.1924" lon="5.05602">
        <ele>410.9</ele>
        <time>2020-11-26T10:47:08Z</time>
      </trkpt>
      <trkpt lat="44.1924" lon="5.05583">
        <ele>409.4</ele>
        <time>2020-11-26T10:47:26Z</time>
      </trkpt>
      <trkpt lat="44.19243" lon="5.05588">
        <ele>409.3</ele>
        <time>2020-11-26T10:47:30Z</time>
      </trkpt>
      <trkpt lat="44.1925" lon="5.05602">
        <ele>409.1</ele>
        <time>2020-11-26T10:47:42Z</time>
      </trkpt>
      <trkpt lat="44.19256" lon="5.0561">
        <ele>411.6</ele>
        <time>2020-11-26T10:47:57Z</time>
      </trkpt>
      <trkpt lat="44.19259" lon="5.0562">
        <ele>413.2</ele>
        <time>2020-11-26T10:48:27Z</time>
      </trkpt>
      <trkpt lat="44.19266" lon="5.05621">
        <ele>415.5</ele>
        <time>2020-11-26T10:48:46Z</time>
      </trkpt>
      <trkpt lat="44.1927" lon="5.05623">
        <ele>416.9</ele>
        <time>2020-11-26T10:49:02Z</time>
      </trkpt>
      <trkpt lat="44.19273" lon="5.0563">
        <ele>418.2</ele>
        <time>2020-11-26T10:49:23Z</time>
      </trkpt>
      <trkpt lat="44.19281" lon="5.05641">
        <ele>421.1</ele>
        <time>2020-11-26T10:49:41Z</time>
      </trkpt>
      <trkpt lat="44.19285" lon="5.0565">
        <ele>422.6</ele>
        <time>2020-11-26T10:49:55Z</time>
      </trkpt>
      <trkpt lat="44.1929" lon="5.0567">
        <ele>424.8</ele>
        <time>2020-11-26T10:50:12Z</time>
      </trkpt>
      <trkpt lat="44.19292" lon="5.05675">
        <ele>425.9</ele>
        <time>2020-11-26T10:50:26Z</time>
      </trkpt>
      <trkpt lat="44.19298" lon="5.05684">
        <ele>428.4</ele>
        <time>2020-11-26T10:50:43Z</time>
      </trkpt>
      <trkpt lat="44.19306" lon="5.05674">
        <ele>429.7</ele>
        <time>2020-11-26T10:51:02Z</time>
      </trkpt>
      <trkpt lat="44.19314" lon="5.05668">
        <ele>431.5</ele>
        <time>2020-11-26T10:51:19Z</time>
      </trkpt>
      <trkpt lat="44.19324" lon="5.05671">
        <ele>434.6</ele>
        <time>2020-11-26T10:51:38Z</time>
      </trkpt>
      <trkpt lat="44.1933" lon="5.05675">
        <ele>436.6</ele>
        <time>2020-11-26T10:51:57Z</time>
      </trkpt>
      <trkpt lat="44.19336" lon="5.05672">
        <ele>438.1</ele>
        <time>2020-11-26T10:52:12Z</time>
      </trkpt>
      <trkpt lat="44.19344" lon="5.05671">
        <ele>440.4</ele>
        <time>2020-11-26T10:52:26Z</time>
      </trkpt>
      <trkpt lat="44.19346" lon="5.0567">
        <ele>440.9</ele>
        <time>2020-11-26T10:52:30Z</time>
      </trkpt>
      <trkpt lat="44.19357" lon="5.05664">
        <ele>443.8</ele>
        <time>2020-11-26T10:52:49Z</time>
      </trkpt>
      <trkpt lat="44.19364" lon="5.05652">
        <ele>445.4</ele>
        <time>2020-11-26T10:53:06Z</time>
      </trkpt>
      <trkpt lat="44.19373" lon="5.0565">
        <ele>447.8</ele>
        <time>2020-11-26T10:53:31Z</time>
      </trkpt>
      <trkpt lat="44.19383" lon="5.05644">
        <ele>450.1</ele>
        <time>2020-11-26T10:53:50Z</time>
      </trkpt>
      <trkpt lat="44.19393" lon="5.05639">
        <ele>452.4</ele>
        <time>2020-11-26T10:54:11Z</time>
      </trkpt>
      <trkpt lat="44.19401" lon="5.05643">
        <ele>454.7</ele>
        <time>2020-11-26T10:54:27Z</time>
      </trkpt>
      <trkpt lat="44.1941" lon="5.05652">
        <ele>457.8</ele>
        <time>2020-11-26T10:54:51Z</time>
      </trkpt>
      <trkpt lat="44.19417" lon="5.05653">
        <ele>459.7</ele>
        <time>2020-11-26T10:55:04Z</time>
      </trkpt>
      <trkpt lat="44.19431" lon="5.05656">
        <ele>460.5</ele>
        <time>2020-11-26T10:55:30Z</time>
      </trkpt>
      <trkpt lat="44.1944" lon="5.0567">
        <ele>462.3</ele>
        <time>2020-11-26T10:55:49Z</time>
      </trkpt>
      <trkpt lat="44.19447" lon="5.05676">
        <ele>463.4</ele>
        <time>2020-11-26T10:56:05Z</time>
      </trkpt>
      <trkpt lat="44.1946" lon="5.0569">
        <ele>465.9</ele>
        <time>2020-11-26T10:56:28Z</time>
      </trkpt>
      <trkpt lat="44.19473" lon="5.05703">
        <ele>468.3</ele>
        <time>2020-11-26T10:56:50Z</time>
      </trkpt>
      <trkpt lat="44.19481" lon="5.05704">
        <ele>468.7</ele>
        <time>2020-11-26T10:57:03Z</time>
      </trkpt>
      <trkpt lat="44.19482" lon="5.05709">
        <ele>469.4</ele>
        <time>2020-11-26T10:57:41Z</time>
      </trkpt>
      <trkpt lat="44.19492" lon="5.05717">
        <ele>471</ele>
        <time>2020-11-26T10:58:04Z</time>
      </trkpt>
      <trkpt lat="44.19502" lon="5.05728">
        <ele>473.1</ele>
        <time>2020-11-26T10:58:18Z</time>
      </trkpt>
      <trkpt lat="44.19521" lon="5.05752">
        <ele>478.5</ele>
        <time>2020-11-26T10:58:43Z</time>
      </trkpt>
      <trkpt lat="44.19541" lon="5.05768">
        <ele>482.5</ele>
        <time>2020-11-26T10:59:05Z</time>
      </trkpt>
      <trkpt lat="44.1956" lon="5.05777">
        <ele>485.1</ele>
        <time>2020-11-26T10:59:31Z</time>
      </trkpt>
      <trkpt lat="44.19578" lon="5.05781">
        <ele>486.8</ele>
        <time>2020-11-26T10:59:54Z</time>
      </trkpt>
      <trkpt lat="44.19591" lon="5.05804">
        <ele>490</ele>
        <time>2020-11-26T11:00:18Z</time>
      </trkpt>
      <trkpt lat="44.19598" lon="5.05819">
        <ele>491.9</ele>
        <time>2020-11-26T11:00:41Z</time>
      </trkpt>
      <trkpt lat="44.19603" lon="5.0583">
        <ele>493.2</ele>
        <time>2020-11-26T11:00:59Z</time>
      </trkpt>
      <trkpt lat="44.19621" lon="5.05827">
        <ele>495.3</ele>
        <time>2020-11-26T11:01:23Z</time>
      </trkpt>
      <trkpt lat="44.19638" lon="5.05826">
        <ele>497.4</ele>
        <time>2020-11-26T11:01:46Z</time>
      </trkpt>
      <trkpt lat="44.19646" lon="5.05832">
        <ele>498.5</ele>
        <time>2020-11-26T11:02:08Z</time>
      </trkpt>
      <trkpt lat="44.19657" lon="5.05837">
        <ele>499.9</ele>
        <time>2020-11-26T11:02:27Z</time>
      </trkpt>
      <trkpt lat="44.19668" lon="5.05834">
        <ele>501.1</ele>
        <time>2020-11-26T11:02:49Z</time>
      </trkpt>
      <trkpt lat="44.19674" lon="5.05829">
        <ele>501.7</ele>
        <time>2020-11-26T11:03:18Z</time>
      </trkpt>
      <trkpt lat="44.19685" lon="5.0584">
        <ele>502.6</ele>
        <time>2020-11-26T11:03:42Z</time>
      </trkpt>
      <trkpt lat="44.19686" lon="5.05841">
        <ele>502.7</ele>
        <time>2020-11-26T11:03:45Z</time>
      </trkpt>
      <trkpt lat="44.1969" lon="5.05827">
        <ele>503</ele>
        <time>2020-11-26T11:04:09Z</time>
      </trkpt>
      <trkpt lat="44.19692" lon="5.0581">
        <ele>503.4</ele>
        <time>2020-11-26T11:04:30Z</time>
      </trkpt>
      <trkpt lat="44.19685" lon="5.05793">
        <ele>503</ele>
        <time>2020-11-26T11:04:51Z</time>
      </trkpt>
      <trkpt lat="44.19684" lon="5.05795">
        <ele>502.9</ele>
        <time>2020-11-26T11:05:18Z</time>
      </trkpt>
      <trkpt lat="44.19683" lon="5.05794">
        <ele>502.8</ele>
        <time>2020-11-26T11:05:26Z</time>
      </trkpt>
      <trkpt lat="44.19673" lon="5.05805">
        <ele>501.9</ele>
        <time>2020-11-26T11:05:59Z</time>
      </trkpt>
      <trkpt lat="44.19667" lon="5.05774">
        <ele>501.7</ele>
        <time>2020-11-26T11:06:30Z</time>
      </trkpt>
      <trkpt lat="44.19656" lon="5.05749">
        <ele>499.8</ele>
        <time>2020-11-26T11:06:49Z</time>
      </trkpt>
      <trkpt lat="44.1965" lon="5.05733">
        <ele>498.7</ele>
        <time>2020-11-26T11:07:03Z</time>
      </trkpt>
      <trkpt lat="44.19642" lon="5.05709">
        <ele>497.2</ele>
        <time>2020-11-26T11:07:23Z</time>
      </trkpt>
      <trkpt lat="44.19635" lon="5.0568">
        <ele>495.7</ele>
        <time>2020-11-26T11:07:48Z</time>
      </trkpt>
      <trkpt lat="44.1963" lon="5.05666">
        <ele>494.6</ele>
        <time>2020-11-26T11:08:10Z</time>
      </trkpt>
      <trkpt lat="44.19624" lon="5.05648">
        <ele>493.4</ele>
        <time>2020-11-26T11:08:23Z</time>
      </trkpt>
      <trkpt lat="44.19614" lon="5.05622">
        <ele>491.5</ele>
        <time>2020-11-26T11:08:44Z</time>
      </trkpt>
      <trkpt lat="44.19609" lon="5.05608">
        <ele>490.6</ele>
        <time>2020-11-26T11:09:04Z</time>
      </trkpt>
      <trkpt lat="44.19608" lon="5.05606">
        <ele>490.4</ele>
        <time>2020-11-26T11:09:43Z</time>
      </trkpt>
      <trkpt lat="44.19607" lon="5.05598">
        <ele>490.3</ele>
        <time>2020-11-26T11:10:25Z</time>
      </trkpt>
      <trkpt lat="44.19604" lon="5.05573">
        <ele>490</ele>
        <time>2020-11-26T11:10:45Z</time>
      </trkpt>
      <trkpt lat="44.19602" lon="5.05543">
        <ele>489.9</ele>
        <time>2020-11-26T11:11:05Z</time>
      </trkpt>
      <trkpt lat="44.19598" lon="5.05519">
        <ele>489.3</ele>
        <time>2020-11-26T11:11:22Z</time>
      </trkpt>
      <trkpt lat="44.19597" lon="5.05497">
        <ele>489.2</ele>
        <time>2020-11-26T11:11:36Z</time>
      </trkpt>
      <trkpt lat="44.19595" lon="5.0547">
        <ele>488.5</ele>
        <time>2020-11-26T11:11:55Z</time>
      </trkpt>
      <trkpt lat="44.1959" lon="5.05445">
        <ele>487.4</ele>
        <time>2020-11-26T11:12:12Z</time>
      </trkpt>
      <trkpt lat="44.19588" lon="5.0543">
        <ele>486.8</ele>
        <time>2020-11-26T11:12:22Z</time>
      </trkpt>
      <trkpt lat="44.19585" lon="5.05411">
        <ele>486</ele>
        <time>2020-11-26T11:12:36Z</time>
      </trkpt>
      <trkpt lat="44.19584" lon="5.05405">
        <ele>485.7</ele>
        <time>2020-11-26T11:12:39Z</time>
      </trkpt>
      <trkpt lat="44.19586" lon="5.05379">
        <ele>485</ele>
        <time>2020-11-26T11:12:57Z</time>
      </trkpt>
      <trkpt lat="44.19585" lon="5.05355">
        <ele>484</ele>
        <time>2020-11-26T11:13:12Z</time>
      </trkpt>
      <trkpt lat="44.19586" lon="5.05337">
        <ele>483.4</ele>
        <time>2020-11-26T11:13:28Z</time>
      </trkpt>
      <trkpt lat="44.19586" lon="5.05313">
        <ele>482.2</ele>
        <time>2020-11-26T11:13:45Z</time>
      </trkpt>
      <trkpt lat="44.19588" lon="5.05299">
        <ele>481.7</ele>
        <time>2020-11-26T11:13:53Z</time>
      </trkpt>
      <trkpt lat="44.19596" lon="5.05275">
        <ele>481</ele>
        <time>2020-11-26T11:14:07Z</time>
      </trkpt>
      <trkpt lat="44.19601" lon="5.05257">
        <ele>480.3</ele>
        <time>2020-11-26T11:14:22Z</time>
      </trkpt>
      <trkpt lat="44.19601" lon="5.05256">
        <ele>480.2</ele>
        <time>2020-11-26T11:14:23Z</time>
      </trkpt>
      <trkpt lat="44.196" lon="5.0525">
        <ele>479.8</ele>
        <time>2020-11-26T11:14:32Z</time>
      </trkpt>
      <trkpt lat="44.19599" lon="5.0523">
        <ele>479.2</ele>
        <time>2020-11-26T11:14:48Z</time>
      </trkpt>
      <trkpt lat="44.19605" lon="5.05215">
        <ele>478.7</ele>
        <time>2020-11-26T11:15:01Z</time>
      </trkpt>
      <trkpt lat="44.19606" lon="5.05208">
        <ele>478.5</ele>
        <time>2020-11-26T11:15:05Z</time>
      </trkpt>
      <trkpt lat="44.19611" lon="5.052">
        <ele>478.1</ele>
        <time>2020-11-26T11:15:13Z</time>
      </trkpt>
      <trkpt lat="44.19613" lon="5.05196">
        <ele>477.9</ele>
        <time>2020-11-26T11:15:17Z</time>
      </trkpt>
      <trkpt lat="44.19617" lon="5.0519">
        <ele>477.6</ele>
        <time>2020-11-26T11:15:23Z</time>
      </trkpt>
      <trkpt lat="44.19619" lon="5.05186">
        <ele>477.3</ele>
        <time>2020-11-26T11:15:27Z</time>
      </trkpt>
      <trkpt lat="44.1962" lon="5.05184">
        <ele>477.2</ele>
        <time>2020-11-26T11:15:29Z</time>
      </trkpt>
      <trkpt lat="44.1963" lon="5.05169">
        <ele>475.9</ele>
        <time>2020-11-26T11:15:45Z</time>
      </trkpt>
      <trkpt lat="44.19638" lon="5.05158">
        <ele>475.1</ele>
        <time>2020-11-26T11:16:02Z</time>
      </trkpt>
      <trkpt lat="44.19647" lon="5.05147">
        <ele>474.2</ele>
        <time>2020-11-26T11:16:16Z</time>
      </trkpt>
      <trkpt lat="44.19658" lon="5.05132">
        <ele>472.9</ele>
        <time>2020-11-26T11:16:39Z</time>
      </trkpt>
      <trkpt lat="44.19669" lon="5.05125">
        <ele>472</ele>
        <time>2020-11-26T11:17:00Z</time>
      </trkpt>
      <trkpt lat="44.19673" lon="5.05112">
        <ele>471.2</ele>
        <time>2020-11-26T11:17:28Z</time>
      </trkpt>
      <trkpt lat="44.19677" lon="5.05101">
        <ele>470.6</ele>
        <time>2020-11-26T11:17:54Z</time>
      </trkpt>
      <trkpt lat="44.19685" lon="5.05087">
        <ele>469.5</ele>
        <time>2020-11-26T11:18:10Z</time>
      </trkpt>
      <trkpt lat="44.19705" lon="5.05058">
        <ele>467.9</ele>
        <time>2020-11-26T11:18:38Z</time>
      </trkpt>
      <trkpt lat="44.19727" lon="5.05034">
        <ele>466</ele>
        <time>2020-11-26T11:19:03Z</time>
      </trkpt>
      <trkpt lat="44.19741" lon="5.05012">
        <ele>464.2</ele>
        <time>2020-11-26T11:19:25Z</time>
      </trkpt>
      <trkpt lat="44.19752" lon="5.04991">
        <ele>462.2</ele>
        <time>2020-11-26T11:19:43Z</time>
      </trkpt>
      <trkpt lat="44.19754" lon="5.04984">
        <ele>461.6</ele>
        <time>2020-11-26T11:19:58Z</time>
      </trkpt>
      <trkpt lat="44.19759" lon="5.04979">
        <ele>461.1</ele>
        <time>2020-11-26T11:20:07Z</time>
      </trkpt>
      <trkpt lat="44.19763" lon="5.04977">
        <ele>460.9</ele>
        <time>2020-11-26T11:20:13Z</time>
      </trkpt>
      <trkpt lat="44.19768" lon="5.04971">
        <ele>460.5</ele>
        <time>2020-11-26T11:20:22Z</time>
      </trkpt>
      <trkpt lat="44.19773" lon="5.04965">
        <ele>460.2</ele>
        <time>2020-11-26T11:20:26Z</time>
      </trkpt>
      <trkpt lat="44.19774" lon="5.04963">
        <ele>460.1</ele>
        <time>2020-11-26T11:20:27Z</time>
      </trkpt>
      <trkpt lat="44.19775" lon="5.04962">
        <ele>460</ele>
        <time>2020-11-26T11:20:28Z</time>
      </trkpt>
      <trkpt lat="44.19779" lon="5.04956">
        <ele>459.7</ele>
        <time>2020-11-26T11:20:35Z</time>
      </trkpt>
      <trkpt lat="44.1978" lon="5.04955">
        <ele>459.7</ele>
        <time>2020-11-26T11:20:36Z</time>
      </trkpt>
      <trkpt lat="44.1979" lon="5.04951">
        <ele>459.7</ele>
        <time>2020-11-26T11:20:51Z</time>
      </trkpt>
      <trkpt lat="44.1979" lon="5.0495">
        <ele>459.7</ele>
        <time>2020-11-26T11:20:52Z</time>
      </trkpt>
      <trkpt lat="44.19791" lon="5.04949">
        <ele>459.6</ele>
        <time>2020-11-26T11:20:53Z</time>
      </trkpt>
      <trkpt lat="44.19804" lon="5.04937">
        <ele>459.7</ele>
        <time>2020-11-26T11:21:06Z</time>
      </trkpt>
      <trkpt lat="44.19829" lon="5.04912">
        <ele>460.5</ele>
        <time>2020-11-26T11:21:31Z</time>
      </trkpt>
      <trkpt lat="44.19852" lon="5.04884">
        <ele>460.6</ele>
        <time>2020-11-26T11:21:58Z</time>
      </trkpt>
      <trkpt lat="44.19863" lon="5.04865">
        <ele>460.8</ele>
        <time>2020-11-26T11:22:13Z</time>
      </trkpt>
      <trkpt lat="44.1987" lon="5.04846">
        <ele>461.1</ele>
        <time>2020-11-26T11:22:28Z</time>
      </trkpt>
      <trkpt lat="44.19875" lon="5.04824">
        <ele>460.5</ele>
        <time>2020-11-26T11:22:43Z</time>
      </trkpt>
      <trkpt lat="44.19877" lon="5.04807">
        <ele>458.8</ele>
        <time>2020-11-26T11:22:55Z</time>
      </trkpt>
      <trkpt lat="44.19883" lon="5.04787">
        <ele>457.3</ele>
        <time>2020-11-26T11:23:10Z</time>
      </trkpt>
      <trkpt lat="44.19884" lon="5.04786">
        <ele>457.3</ele>
        <time>2020-11-26T11:23:11Z</time>
      </trkpt>
      <trkpt lat="44.19884" lon="5.04785">
        <ele>457.2</ele>
        <time>2020-11-26T11:23:12Z</time>
      </trkpt>
      <trkpt lat="44.19885" lon="5.04783">
        <ele>457</ele>
        <time>2020-11-26T11:23:13Z</time>
      </trkpt>
      <trkpt lat="44.19885" lon="5.04782">
        <ele>456.9</ele>
        <time>2020-11-26T11:23:14Z</time>
      </trkpt>
      <trkpt lat="44.19889" lon="5.04772">
        <ele>456.3</ele>
        <time>2020-11-26T11:23:21Z</time>
      </trkpt>
      <trkpt lat="44.19892" lon="5.04762">
        <ele>455.6</ele>
        <time>2020-11-26T11:23:39Z</time>
      </trkpt>
      <trkpt lat="44.19895" lon="5.04752">
        <ele>454.9</ele>
        <time>2020-11-26T11:23:57Z</time>
      </trkpt>
      <trkpt lat="44.19898" lon="5.04736">
        <ele>453.4</ele>
        <time>2020-11-26T11:24:16Z</time>
      </trkpt>
      <trkpt lat="44.19916" lon="5.04715">
        <ele>452.7</ele>
        <time>2020-11-26T11:24:42Z</time>
      </trkpt>
      <trkpt lat="44.19931" lon="5.04702">
        <ele>451.2</ele>
        <time>2020-11-26T11:25:04Z</time>
      </trkpt>
      <trkpt lat="44.19949" lon="5.0469">
        <ele>449.5</ele>
        <time>2020-11-26T11:25:27Z</time>
      </trkpt>
      <trkpt lat="44.19968" lon="5.04679">
        <ele>447.6</ele>
        <time>2020-11-26T11:25:51Z</time>
      </trkpt>
      <trkpt lat="44.19974" lon="5.04678">
        <ele>447.4</ele>
        <time>2020-11-26T11:26:07Z</time>
      </trkpt>
      <trkpt lat="44.1998" lon="5.04673">
        <ele>446.5</ele>
        <time>2020-11-26T11:26:16Z</time>
      </trkpt>
      <trkpt lat="44.19992" lon="5.04668">
        <ele>445.4</ele>
        <time>2020-11-26T11:26:32Z</time>
      </trkpt>
      <trkpt lat="44.20006" lon="5.04668">
        <ele>445</ele>
        <time>2020-11-26T11:26:45Z</time>
      </trkpt>
      <trkpt lat="44.20013" lon="5.04669">
        <ele>444.9</ele>
        <time>2020-11-26T11:27:01Z</time>
      </trkpt>
      <trkpt lat="44.20029" lon="5.04666">
        <ele>443.8</ele>
        <time>2020-11-26T11:27:31Z</time>
      </trkpt>
      <trkpt lat="44.20047" lon="5.04661">
        <ele>442.4</ele>
        <time>2020-11-26T11:27:57Z</time>
      </trkpt>
      <trkpt lat="44.2007" lon="5.04654">
        <ele>440.4</ele>
        <time>2020-11-26T11:28:21Z</time>
      </trkpt>
      <trkpt lat="44.20093" lon="5.04644">
        <ele>438</ele>
        <time>2020-11-26T11:28:50Z</time>
      </trkpt>
      <trkpt lat="44.20113" lon="5.0464">
        <ele>437.2</ele>
        <time>2020-11-26T11:29:10Z</time>
      </trkpt>
      <trkpt lat="44.2013" lon="5.04632">
        <ele>436.3</ele>
        <time>2020-11-26T11:29:36Z</time>
      </trkpt>
      <trkpt lat="44.20155" lon="5.04622">
        <ele>435.7</ele>
        <time>2020-11-26T11:30:03Z</time>
      </trkpt>
      <trkpt lat="44.20174" lon="5.0461">
        <ele>434.8</ele>
        <time>2020-11-26T11:30:30Z</time>
      </trkpt>
      <trkpt lat="44.20191" lon="5.04605">
        <ele>433.4</ele>
        <time>2020-11-26T11:30:55Z</time>
      </trkpt>
      <trkpt lat="44.20216" lon="5.046">
        <ele>431.6</ele>
        <time>2020-11-26T11:31:19Z</time>
      </trkpt>
      <trkpt lat="44.20235" lon="5.04602">
        <ele>430.4</ele>
        <time>2020-11-26T11:31:44Z</time>
      </trkpt>
      <trkpt lat="44.20249" lon="5.04601">
        <ele>429.5</ele>
        <time>2020-11-26T11:32:05Z</time>
      </trkpt>
      <trkpt lat="44.20275" lon="5.04604">
        <ele>427.7</ele>
        <time>2020-11-26T11:32:32Z</time>
      </trkpt>
      <trkpt lat="44.20293" lon="5.04597">
        <ele>426.4</ele>
        <time>2020-11-26T11:32:56Z</time>
      </trkpt>
      <trkpt lat="44.20304" lon="5.04594">
        <ele>425.7</ele>
        <time>2020-11-26T11:33:13Z</time>
      </trkpt>
      <trkpt lat="44.20314" lon="5.04587">
        <ele>425.1</ele>
        <time>2020-11-26T11:33:27Z</time>
      </trkpt>
      <trkpt lat="44.2033" lon="5.04572">
        <ele>423.2</ele>
        <time>2020-11-26T11:33:46Z</time>
      </trkpt>
      <trkpt lat="44.2033" lon="5.04554">
        <ele>421.7</ele>
        <time>2020-11-26T11:34:00Z</time>
      </trkpt>
      <trkpt lat="44.20325" lon="5.0454">
        <ele>420.7</ele>
        <time>2020-11-26T11:34:12Z</time>
      </trkpt>
      <trkpt lat="44.20324" lon="5.04526">
        <ele>419.5</ele>
        <time>2020-11-26T11:34:23Z</time>
      </trkpt>
      <trkpt lat="44.20323" lon="5.0452">
        <ele>419</ele>
        <time>2020-11-26T11:34:27Z</time>
      </trkpt>
      <trkpt lat="44.20321" lon="5.04511">
        <ele>418.3</ele>
        <time>2020-11-26T11:34:37Z</time>
      </trkpt>
      <trkpt lat="44.2032" lon="5.04503">
        <ele>417.6</ele>
        <time>2020-11-26T11:34:41Z</time>
      </trkpt>
      <trkpt lat="44.20318" lon="5.04495">
        <ele>416.9</ele>
        <time>2020-11-26T11:34:48Z</time>
      </trkpt>
      <trkpt lat="44.20318" lon="5.04493">
        <ele>416.7</ele>
        <time>2020-11-26T11:34:49Z</time>
      </trkpt>
      <trkpt lat="44.20313" lon="5.04475">
        <ele>415</ele>
        <time>2020-11-26T11:35:04Z</time>
      </trkpt>
      <trkpt lat="44.20311" lon="5.04466">
        <ele>414.2</ele>
        <time>2020-11-26T11:35:20Z</time>
      </trkpt>
      <trkpt lat="44.20303" lon="5.04432">
        <ele>410.9</ele>
        <time>2020-11-26T11:35:45Z</time>
      </trkpt>
      <trkpt lat="44.20299" lon="5.04422">
        <ele>410</ele>
        <time>2020-11-26T11:36:09Z</time>
      </trkpt>
      <trkpt lat="44.20297" lon="5.04402">
        <ele>408.9</ele>
        <time>2020-11-26T11:36:30Z</time>
      </trkpt>
      <trkpt lat="44.20291" lon="5.04374">
        <ele>408</ele>
        <time>2020-11-26T11:36:53Z</time>
      </trkpt>
      <trkpt lat="44.20288" lon="5.04357">
        <ele>407.5</ele>
        <time>2020-11-26T11:37:05Z</time>
      </trkpt>
      <trkpt lat="44.20287" lon="5.04355">
        <ele>407.4</ele>
        <time>2020-11-26T11:37:06Z</time>
      </trkpt>
      <trkpt lat="44.20295" lon="5.04334">
        <ele>406.4</ele>
        <time>2020-11-26T11:37:24Z</time>
      </trkpt>
      <trkpt lat="44.20305" lon="5.0432">
        <ele>406.1</ele>
        <time>2020-11-26T11:37:35Z</time>
      </trkpt>
      <trkpt lat="44.20309" lon="5.04311">
        <ele>406</ele>
        <time>2020-11-26T11:37:48Z</time>
      </trkpt>
      <trkpt lat="44.2031" lon="5.04297">
        <ele>406</ele>
        <time>2020-11-26T11:38:08Z</time>
      </trkpt>
      <trkpt lat="44.20315" lon="5.04283">
        <ele>405.8</ele>
        <time>2020-11-26T11:38:27Z</time>
      </trkpt>
      <trkpt lat="44.20316" lon="5.04272">
        <ele>405.8</ele>
        <time>2020-11-26T11:38:57Z</time>
      </trkpt>
      <trkpt lat="44.20318" lon="5.04262">
        <ele>405.7</ele>
        <time>2020-11-26T11:39:10Z</time>
      </trkpt>
      <trkpt lat="44.20318" lon="5.04257">
        <ele>405.7</ele>
        <time>2020-11-26T11:39:39Z</time>
      </trkpt>
      <trkpt lat="44.20323" lon="5.04241">
        <ele>404.9</ele>
        <time>2020-11-26T11:39:58Z</time>
      </trkpt>
      <trkpt lat="44.20324" lon="5.0424">
        <ele>404.8</ele>
        <time>2020-11-26T11:39:59Z</time>
      </trkpt>
      <trkpt lat="44.20332" lon="5.04226">
        <ele>403.4</ele>
        <time>2020-11-26T11:40:18Z</time>
      </trkpt>
      <trkpt lat="44.20333" lon="5.04208">
        <ele>402</ele>
        <time>2020-11-26T11:40:41Z</time>
      </trkpt>
      <trkpt lat="44.20335" lon="5.04192">
        <ele>400.9</ele>
        <time>2020-11-26T11:41:01Z</time>
      </trkpt>
      <trkpt lat="44.20337" lon="5.04188">
        <ele>400.7</ele>
        <time>2020-11-26T11:41:05Z</time>
      </trkpt>
      <trkpt lat="44.20342" lon="5.04175">
        <ele>399.9</ele>
        <time>2020-11-26T11:41:21Z</time>
      </trkpt>
      <trkpt lat="44.20361" lon="5.04165">
        <ele>399.8</ele>
        <time>2020-11-26T11:41:45Z</time>
      </trkpt>
      <trkpt lat="44.20382" lon="5.04157">
        <ele>399.9</ele>
        <time>2020-11-26T11:42:12Z</time>
      </trkpt>
      <trkpt lat="44.20391" lon="5.04141">
        <ele>399</ele>
      </trkpt>
      <trkpt lat="44.20402" lon="5.04122">
        <ele>398.4</ele>
      </trkpt>
      <trkpt lat="44.20411" lon="5.04112">
        <ele>398.2</ele>
      </trkpt>
      <trkpt lat="44.20406" lon="5.04119">
        <ele>398.4</ele>
        <time>2020-11-26T12:28:37Z</time>
      </trkpt>
      <trkpt lat="44.20412" lon="5.04111">
        <ele>398.3</ele>
        <time>2020-11-26T12:28:57Z</time>
      </trkpt>
      <trkpt lat="44.20416" lon="5.04105">
        <ele>398.2</ele>
        <time>2020-11-26T12:29:15Z</time>
      </trkpt>
      <trkpt lat="44.20418" lon="5.04097">
        <ele>397.9</ele>
        <time>2020-11-26T12:29:39Z</time>
      </trkpt>
      <trkpt lat="44.20419" lon="5.0408">
        <ele>397.5</ele>
        <time>2020-11-26T12:29:54Z</time>
      </trkpt>
      <trkpt lat="44.20424" lon="5.04062">
        <ele>399.8</ele>
        <time>2020-11-26T12:30:08Z</time>
      </trkpt>
      <trkpt lat="44.20429" lon="5.04053">
        <ele>401.1</ele>
        <time>2020-11-26T12:30:27Z</time>
      </trkpt>
      <trkpt lat="44.20441" lon="5.04049">
        <ele>402.5</ele>
        <time>2020-11-26T12:30:43Z</time>
      </trkpt>
      <trkpt lat="44.20453" lon="5.04052">
        <ele>402.9</ele>
        <time>2020-11-26T12:30:55Z</time>
      </trkpt>
      <trkpt lat="44.20472" lon="5.04054">
        <ele>404</ele>
        <time>2020-11-26T12:31:13Z</time>
      </trkpt>
      <trkpt lat="44.20499" lon="5.04052">
        <ele>406.2</ele>
        <time>2020-11-26T12:31:37Z</time>
      </trkpt>
      <trkpt lat="44.20518" lon="5.0405">
        <ele>406.7</ele>
        <time>2020-11-26T12:31:59Z</time>
      </trkpt>
      <trkpt lat="44.20519" lon="5.04049">
        <ele>406.9</ele>
        <time>2020-11-26T12:32:00Z</time>
      </trkpt>
      <trkpt lat="44.20526" lon="5.04037">
        <ele>409.2</ele>
        <time>2020-11-26T12:32:20Z</time>
      </trkpt>
      <trkpt lat="44.20522" lon="5.04036">
        <ele>409.3</ele>
        <time>2020-11-26T12:32:30Z</time>
      </trkpt>
      <trkpt lat="44.20505" lon="5.04024">
        <ele>411.1</ele>
        <time>2020-11-26T12:32:49Z</time>
      </trkpt>
      <trkpt lat="44.20498" lon="5.04021">
        <ele>411.3</ele>
        <time>2020-11-26T12:33:09Z</time>
      </trkpt>
      <trkpt lat="44.20475" lon="5.04008">
        <ele>411.1</ele>
        <time>2020-11-26T12:33:31Z</time>
      </trkpt>
      <trkpt lat="44.20459" lon="5.03991">
        <ele>411.3</ele>
        <time>2020-11-26T12:33:47Z</time>
      </trkpt>
      <trkpt lat="44.20444" lon="5.03977">
        <ele>410.6</ele>
        <time>2020-11-26T12:34:02Z</time>
      </trkpt>
      <trkpt lat="44.2043" lon="5.03954">
        <ele>410.5</ele>
        <time>2020-11-26T12:34:19Z</time>
      </trkpt>
      <trkpt lat="44.20428" lon="5.03952">
        <ele>410.3</ele>
        <time>2020-11-26T12:34:21Z</time>
      </trkpt>
      <trkpt lat="44.20426" lon="5.03944">
        <ele>410.6</ele>
        <time>2020-11-26T12:34:27Z</time>
      </trkpt>
      <trkpt lat="44.20423" lon="5.0393">
        <ele>411.1</ele>
        <time>2020-11-26T12:34:37Z</time>
      </trkpt>
      <trkpt lat="44.20426" lon="5.03905">
        <ele>413.1</ele>
        <time>2020-11-26T12:34:55Z</time>
      </trkpt>
      <trkpt lat="44.20429" lon="5.039">
        <ele>413.8</ele>
        <time>2020-11-26T12:34:59Z</time>
      </trkpt>
      <trkpt lat="44.20442" lon="5.03887">
        <ele>416.1</ele>
        <time>2020-11-26T12:35:16Z</time>
      </trkpt>
      <trkpt lat="44.20462" lon="5.03875">
        <ele>418.9</ele>
        <time>2020-11-26T12:35:34Z</time>
      </trkpt>
      <trkpt lat="44.20465" lon="5.03875">
        <ele>419.2</ele>
        <time>2020-11-26T12:35:37Z</time>
      </trkpt>
      <trkpt lat="44.20485" lon="5.03863">
        <ele>421.5</ele>
        <time>2020-11-26T12:35:57Z</time>
      </trkpt>
      <trkpt lat="44.20498" lon="5.03857">
        <ele>422.8</ele>
        <time>2020-11-26T12:36:17Z</time>
      </trkpt>
      <trkpt lat="44.20509" lon="5.0385">
        <ele>423.1</ele>
        <time>2020-11-26T12:36:28Z</time>
      </trkpt>
      <trkpt lat="44.20528" lon="5.03829">
        <ele>423.1</ele>
        <time>2020-11-26T12:36:51Z</time>
      </trkpt>
      <trkpt lat="44.20531" lon="5.03826">
        <ele>423.2</ele>
        <time>2020-11-26T12:36:54Z</time>
      </trkpt>
      <trkpt lat="44.20543" lon="5.03813">
        <ele>423.3</ele>
        <time>2020-11-26T12:37:07Z</time>
      </trkpt>
      <trkpt lat="44.20546" lon="5.03807">
        <ele>423.4</ele>
        <time>2020-11-26T12:37:12Z</time>
      </trkpt>
      <trkpt lat="44.20549" lon="5.0379">
        <ele>423.5</ele>
        <time>2020-11-26T12:37:30Z</time>
      </trkpt>
      <trkpt lat="44.20551" lon="5.03779">
        <ele>423.5</ele>
        <time>2020-11-26T12:37:38Z</time>
      </trkpt>
      <trkpt lat="44.20551" lon="5.03753">
        <ele>423.7</ele>
        <time>2020-11-26T12:37:55Z</time>
      </trkpt>
      <trkpt lat="44.20553" lon="5.03735">
        <ele>424.2</ele>
        <time>2020-11-26T12:38:07Z</time>
      </trkpt>
      <trkpt lat="44.20555" lon="5.03725">
        <ele>424.5</ele>
        <time>2020-11-26T12:38:13Z</time>
      </trkpt>
      <trkpt lat="44.20556" lon="5.0372">
        <ele>424.6</ele>
        <time>2020-11-26T12:38:17Z</time>
      </trkpt>
      <trkpt lat="44.20559" lon="5.03713">
        <ele>424.6</ele>
        <time>2020-11-26T12:38:23Z</time>
      </trkpt>
      <trkpt lat="44.20568" lon="5.03697">
        <ele>424.4</ele>
        <time>2020-11-26T12:38:38Z</time>
      </trkpt>
      <trkpt lat="44.20584" lon="5.03682">
        <ele>423.4</ele>
        <time>2020-11-26T12:38:57Z</time>
      </trkpt>
      <trkpt lat="44.20595" lon="5.03676">
        <ele>422.6</ele>
        <time>2020-11-26T12:39:19Z</time>
      </trkpt>
      <trkpt lat="44.20602" lon="5.03672">
        <ele>422.2</ele>
        <time>2020-11-26T12:39:33Z</time>
      </trkpt>
      <trkpt lat="44.20621" lon="5.03659">
        <ele>421.1</ele>
        <time>2020-11-26T12:39:56Z</time>
      </trkpt>
      <trkpt lat="44.20647" lon="5.03636">
        <ele>420.1</ele>
        <time>2020-11-26T12:40:23Z</time>
      </trkpt>
      <trkpt lat="44.20673" lon="5.03628">
        <ele>419</ele>
        <time>2020-11-26T12:40:47Z</time>
      </trkpt>
      <trkpt lat="44.20677" lon="5.03628">
        <ele>418.7</ele>
        <time>2020-11-26T12:40:53Z</time>
      </trkpt>
      <trkpt lat="44.20706" lon="5.03631">
        <ele>416.9</ele>
        <time>2020-11-26T12:41:18Z</time>
      </trkpt>
      <trkpt lat="44.20734" lon="5.03627">
        <ele>415.7</ele>
        <time>2020-11-26T12:41:40Z</time>
      </trkpt>
      <trkpt lat="44.20744" lon="5.03623">
        <ele>415.5</ele>
        <time>2020-11-26T12:41:49Z</time>
      </trkpt>
      <trkpt lat="44.20776" lon="5.03625">
        <ele>413.3</ele>
        <time>2020-11-26T12:42:16Z</time>
      </trkpt>
      <trkpt lat="44.20783" lon="5.03626">
        <ele>412.7</ele>
        <time>2020-11-26T12:42:24Z</time>
      </trkpt>
      <trkpt lat="44.20812" lon="5.0362">
        <ele>411.6</ele>
        <time>2020-11-26T12:42:48Z</time>
      </trkpt>
      <trkpt lat="44.20828" lon="5.03625">
        <ele>409.9</ele>
        <time>2020-11-26T12:43:08Z</time>
      </trkpt>
      <trkpt lat="44.20833" lon="5.03626">
        <ele>409.4</ele>
        <time>2020-11-26T12:43:15Z</time>
      </trkpt>
      <trkpt lat="44.20838" lon="5.03627">
        <ele>408.7</ele>
      </trkpt>
      <trkpt lat="44.20845" lon="5.03629">
        <ele>407.6</ele>
      </trkpt>
      <trkpt lat="44.20853" lon="5.03628">
        <ele>406.9</ele>
        <time>2020-11-26T12:44:23Z</time>
      </trkpt>
      <trkpt lat="44.20868" lon="5.03627">
        <ele>405.4</ele>
        <time>2020-11-26T12:44:43Z</time>
      </trkpt>
      <trkpt lat="44.20891" lon="5.03623">
        <ele>403.6</ele>
        <time>2020-11-26T12:45:03Z</time>
      </trkpt>
      <trkpt lat="44.20922" lon="5.03617">
        <ele>401.5</ele>
        <time>2020-11-26T12:45:29Z</time>
      </trkpt>
      <trkpt lat="44.20945" lon="5.03606">
        <ele>401.9</ele>
        <time>2020-11-26T12:45:50Z</time>
      </trkpt>
      <trkpt lat="44.20973" lon="5.03605">
        <ele>400.3</ele>
        <time>2020-11-26T12:46:16Z</time>
      </trkpt>
      <trkpt lat="44.20996" lon="5.03594">
        <ele>399.2</ele>
        <time>2020-11-26T12:46:42Z</time>
      </trkpt>
      <trkpt lat="44.2102" lon="5.03579">
        <ele>396.1</ele>
        <time>2020-11-26T12:47:10Z</time>
      </trkpt>
      <trkpt lat="44.21041" lon="5.03568">
        <ele>392.5</ele>
        <time>2020-11-26T12:47:35Z</time>
      </trkpt>
      <trkpt lat="44.2106" lon="5.03559">
        <ele>389.2</ele>
        <time>2020-11-26T12:47:57Z</time>
      </trkpt>
      <trkpt lat="44.21082" lon="5.03549">
        <ele>385.3</ele>
        <time>2020-11-26T12:48:22Z</time>
      </trkpt>
      <trkpt lat="44.21101" lon="5.03534">
        <ele>382.8</ele>
        <time>2020-11-26T12:48:48Z</time>
      </trkpt>
      <trkpt lat="44.21121" lon="5.0352">
        <ele>380.8</ele>
        <time>2020-11-26T12:49:13Z</time>
      </trkpt>
      <trkpt lat="44.21131" lon="5.03517">
        <ele>380.1</ele>
        <time>2020-11-26T12:49:35Z</time>
      </trkpt>
      <trkpt lat="44.21148" lon="5.03525">
        <ele>379.6</ele>
        <time>2020-11-26T12:49:49Z</time>
      </trkpt>
      <trkpt lat="44.21151" lon="5.03528">
        <ele>379.6</ele>
        <time>2020-11-26T12:49:52Z</time>
      </trkpt>
      <trkpt lat="44.21156" lon="5.03533">
        <ele>379.4</ele>
        <time>2020-11-26T12:49:57Z</time>
      </trkpt>
      <trkpt lat="44.21166" lon="5.03544">
        <ele>379.1</ele>
        <time>2020-11-26T12:50:11Z</time>
      </trkpt>
      <trkpt lat="44.21163" lon="5.03546">
        <ele>379.4</ele>
        <time>2020-11-26T12:50:33Z</time>
      </trkpt>
      <trkpt lat="44.21164" lon="5.0355">
        <ele>379.4</ele>
        <time>2020-11-26T12:51:04Z</time>
      </trkpt>
      <trkpt lat="44.21166" lon="5.03546">
        <ele>379.2</ele>
        <time>2020-11-26T12:52:12Z</time>
      </trkpt>
      <trkpt lat="44.21172" lon="5.03547">
        <ele>378.6</ele>
        <time>2020-11-26T12:53:00Z</time>
      </trkpt>
      <trkpt lat="44.21183" lon="5.03561">
        <ele>377.6</ele>
        <time>2020-11-26T12:53:22Z</time>
      </trkpt>
      <trkpt lat="44.21187" lon="5.03566">
        <ele>377.2</ele>
        <time>2020-11-26T12:53:28Z</time>
      </trkpt>
      <trkpt lat="44.21198" lon="5.03577">
        <ele>375.9</ele>
        <time>2020-11-26T12:53:40Z</time>
      </trkpt>
      <trkpt lat="44.21203" lon="5.0358">
        <ele>375.2</ele>
        <time>2020-11-26T12:53:46Z</time>
      </trkpt>
      <trkpt lat="44.21208" lon="5.03577">
        <ele>374.6</ele>
        <time>2020-11-26T12:54:03Z</time>
      </trkpt>
      <trkpt lat="44.21207" lon="5.03578">
        <ele>374.7</ele>
        <time>2020-11-26T12:54:24Z</time>
      </trkpt>
      <trkpt lat="44.21206" lon="5.03579">
        <ele>374.9</ele>
        <time>2020-11-26T12:54:46Z</time>
      </trkpt>
      <trkpt lat="44.21209" lon="5.03582">
        <ele>374.4</ele>
        <time>2020-11-26T12:55:24Z</time>
      </trkpt>
      <trkpt lat="44.21225" lon="5.03585">
        <ele>372.1</ele>
        <time>2020-11-26T12:55:44Z</time>
      </trkpt>
      <trkpt lat="44.21242" lon="5.0358">
        <ele>370.2</ele>
        <time>2020-11-26T12:56:09Z</time>
      </trkpt>
      <trkpt lat="44.21252" lon="5.03569">
        <ele>369.5</ele>
        <time>2020-11-26T12:56:28Z</time>
      </trkpt>
      <trkpt lat="44.21268" lon="5.03554">
        <ele>368.5</ele>
        <time>2020-11-26T12:56:47Z</time>
      </trkpt>
      <trkpt lat="44.21283" lon="5.03538">
        <ele>367.4</ele>
        <time>2020-11-26T12:57:06Z</time>
      </trkpt>
      <trkpt lat="44.21305" lon="5.03516">
        <ele>365.4</ele>
        <time>2020-11-26T12:57:30Z</time>
      </trkpt>
      <trkpt lat="44.21306" lon="5.03516">
        <ele>365.3</ele>
      </trkpt>
      <trkpt lat="44.21306" lon="5.03516">
        <ele>365.3</ele>
      </trkpt>
      <trkpt lat="44.21307" lon="5.035">
        <ele>365.5</ele>
        <time>2020-11-26T12:59:05Z</time>
      </trkpt>
      <trkpt lat="44.21302" lon="5.03474">
        <ele>365.1</ele>
        <time>2020-11-26T12:59:27Z</time>
      </trkpt>
      <trkpt lat="44.21311" lon="5.03454">
        <ele>363</ele>
        <time>2020-11-26T12:59:49Z</time>
      </trkpt>
      <trkpt lat="44.21317" lon="5.03438">
        <ele>361.5</ele>
        <time>2020-11-26T13:00:07Z</time>
      </trkpt>
      <trkpt lat="44.21323" lon="5.03425">
        <ele>360</ele>
        <time>2020-11-26T13:00:28Z</time>
      </trkpt>
      <trkpt lat="44.21332" lon="5.03403">
        <ele>357.4</ele>
        <time>2020-11-26T13:00:52Z</time>
      </trkpt>
      <trkpt lat="44.21325" lon="5.03381">
        <ele>357.3</ele>
        <time>2020-11-26T13:01:12Z</time>
      </trkpt>
      <trkpt lat="44.21329" lon="5.03356">
        <ele>355.1</ele>
        <time>2020-11-26T13:01:29Z</time>
      </trkpt>
      <trkpt lat="44.21331" lon="5.03355">
        <ele>354.7</ele>
        <time>2020-11-26T13:01:31Z</time>
      </trkpt>
      <trkpt lat="44.21341" lon="5.03335">
        <ele>353.1</ele>
        <time>2020-11-26T13:01:46Z</time>
      </trkpt>
      <trkpt lat="44.21343" lon="5.03331">
        <ele>352.8</ele>
        <time>2020-11-26T13:01:51Z</time>
      </trkpt>
      <trkpt lat="44.21344" lon="5.03315">
        <ele>351.1</ele>
        <time>2020-11-26T13:02:04Z</time>
      </trkpt>
      <trkpt lat="44.21348" lon="5.0329">
        <ele>348.4</ele>
        <time>2020-11-26T13:02:22Z</time>
      </trkpt>
      <trkpt lat="44.21349" lon="5.03283">
        <ele>347.6</ele>
        <time>2020-11-26T13:02:27Z</time>
      </trkpt>
      <trkpt lat="44.2136" lon="5.03259">
        <ele>344.4</ele>
        <time>2020-11-26T13:02:49Z</time>
      </trkpt>
      <trkpt lat="44.21363" lon="5.03241">
        <ele>342</ele>
        <time>2020-11-26T13:03:14Z</time>
      </trkpt>
      <trkpt lat="44.21367" lon="5.03234">
        <ele>340.7</ele>
        <time>2020-11-26T13:03:34Z</time>
      </trkpt>
      <trkpt lat="44.21369" lon="5.03231">
        <ele>340.2</ele>
        <time>2020-11-26T13:04:04Z</time>
      </trkpt>
      <trkpt lat="44.21366" lon="5.03209">
        <ele>337.3</ele>
        <time>2020-11-26T13:04:26Z</time>
      </trkpt>
      <trkpt lat="44.21362" lon="5.03187">
        <ele>334.7</ele>
        <time>2020-11-26T13:04:49Z</time>
      </trkpt>
      <trkpt lat="44.21363" lon="5.03168">
        <ele>332</ele>
        <time>2020-11-26T13:05:07Z</time>
      </trkpt>
      <trkpt lat="44.21359" lon="5.03152">
        <ele>328.8</ele>
        <time>2020-11-26T13:05:22Z</time>
      </trkpt>
      <trkpt lat="44.21355" lon="5.03128">
        <ele>323.5</ele>
        <time>2020-11-26T13:05:43Z</time>
      </trkpt>
      <trkpt lat="44.2135" lon="5.03109">
        <ele>319.2</ele>
        <time>2020-11-26T13:06:01Z</time>
      </trkpt>
      <trkpt lat="44.21343" lon="5.03092">
        <ele>315.2</ele>
        <time>2020-11-26T13:06:18Z</time>
      </trkpt>
      <trkpt lat="44.21296" lon="5.03045">
        <ele>308.2</ele>
      </trkpt>
      <trkpt lat="44.21266" lon="5.03024">
        <ele>302.5</ele>
      </trkpt>
      <trkpt lat="44.21213" lon="5.02992">
        <ele>294.2</ele>
      </trkpt>
      <trkpt lat="44.21149" lon="5.02976">
        <ele>290.7</ele>
      </trkpt>
      <trkpt lat="44.21096" lon="5.02976">
        <ele>287.2</ele>
      </trkpt>
      <trkpt lat="44.21031" lon="5.02965">
        <ele>285.3</ele>
      </trkpt>
      <trkpt lat="44.20993" lon="5.02944">
        <ele>282.3</ele>
      </trkpt>
      <trkpt lat="44.20884" lon="5.02913">
        <ele>274.1</ele>
      </trkpt>
      <trkpt lat="44.20876" lon="5.02892">
        <ele>272.9</ele>
      </trkpt>
      <trkpt lat="44.20849" lon="5.02818">
        <ele>265.2</ele>
      </trkpt>
      <trkpt lat="44.20853" lon="5.02775">
        <ele>265.7</ele>
      </trkpt>
      <trkpt lat="44.20865" lon="5.02749">
        <ele>269.2</ele>
      </trkpt>
      <trkpt lat="44.20838" lon="5.02691">
        <ele>262.5</ele>
      </trkpt>
      <trkpt lat="44.20827" lon="5.02596">
        <ele>262.5</ele>
      </trkpt>
      <trkpt lat="44.208" lon="5.02448">
        <ele>262.7</ele>
      </trkpt>
      <trkpt lat="44.20762" lon="5.02368">
        <ele>249.7</ele>
      </trkpt>
      <trkpt lat="44.20724" lon="5.02337">
        <ele>244.9</ele>
      </trkpt>
      <trkpt lat="44.2069" lon="5.023">
        <ele>243.6</ele>
      </trkpt>
    </trkseg>
  </trk>
  <trk>
    <name><![CDATA[Monastère de Prébayon_2]]></name>
    <trkseg>
      <trkpt lat="44.20756" lon="5.02332">
        <ele>240.5</ele>
        <time>2020-11-26T15:02:20Z</time>
      </trkpt>
      <trkpt lat="44.20747" lon="5.02339">
        <ele>241</ele>
        <time>2020-11-26T15:02:34Z</time>
      </trkpt>
      <trkpt lat="44.2074" lon="5.02335">
        <ele>241.4</ele>
        <time>2020-11-26T15:02:39Z</time>
      </trkpt>
      <trkpt lat="44.20734" lon="5.02324">
        <ele>240.6</ele>
        <time>2020-11-26T15:02:55Z</time>
      </trkpt>
      <trkpt lat="44.20733" lon="5.02323">
        <ele>240.6</ele>
        <time>2020-11-26T15:02:56Z</time>
      </trkpt>
      <trkpt lat="44.20727" lon="5.02319">
        <ele>241</ele>
        <time>2020-11-26T15:03:01Z</time>
      </trkpt>
      <trkpt lat="44.20721" lon="5.02313">
        <ele>241</ele>
        <time>2020-11-26T15:03:08Z</time>
      </trkpt>
      <trkpt lat="44.20716" lon="5.02309">
        <ele>241.2</ele>
        <time>2020-11-26T15:03:12Z</time>
      </trkpt>
      <trkpt lat="44.20715" lon="5.02306">
        <ele>240.8</ele>
        <time>2020-11-26T15:03:14Z</time>
      </trkpt>
      <trkpt lat="44.20703" lon="5.02292">
        <ele>240.1</ele>
        <time>2020-11-26T15:03:27Z</time>
      </trkpt>
      <trkpt lat="44.20702" lon="5.02284">
        <ele>238.7</ele>
        <time>2020-11-26T15:03:37Z</time>
      </trkpt>
      <trkpt lat="44.20702" lon="5.02283">
        <ele>238.5</ele>
        <time>2020-11-26T15:03:38Z</time>
      </trkpt>
      <trkpt lat="44.20701" lon="5.02282">
        <ele>238.5</ele>
        <time>2020-11-26T15:03:39Z</time>
      </trkpt>
      <trkpt lat="44.20697" lon="5.02284">
        <ele>239.4</ele>
        <time>2020-11-26T15:03:46Z</time>
      </trkpt>
      <trkpt lat="44.20694" lon="5.02281">
        <ele>239.3</ele>
        <time>2020-11-26T15:03:50Z</time>
      </trkpt>
      <trkpt lat="44.20691" lon="5.02279">
        <ele>239.3</ele>
        <time>2020-11-26T15:03:56Z</time>
      </trkpt>
      <trkpt lat="44.20691" lon="5.02277">
        <ele>238.9</ele>
        <time>2020-11-26T15:03:57Z</time>
      </trkpt>
      <trkpt lat="44.20684" lon="5.02271">
        <ele>238.5</ele>
        <time>2020-11-26T15:04:07Z</time>
      </trkpt>
      <trkpt lat="44.20683" lon="5.02271">
        <ele>238.7</ele>
        <time>2020-11-26T15:04:08Z</time>
      </trkpt>
      <trkpt lat="44.20678" lon="5.02265">
        <ele>238</ele>
        <time>2020-11-26T15:04:13Z</time>
      </trkpt>
      <trkpt lat="44.20677" lon="5.02264">
        <ele>237.9</ele>
        <time>2020-11-26T15:04:14Z</time>
      </trkpt>
      <trkpt lat="44.20677" lon="5.02262">
        <ele>237.5</ele>
        <time>2020-11-26T15:04:15Z</time>
      </trkpt>
      <trkpt lat="44.20674" lon="5.02264">
        <ele>238.3</ele>
        <time>2020-11-26T15:04:16Z</time>
      </trkpt>
      <trkpt lat="44.20673" lon="5.02262">
        <ele>238</ele>
        <time>2020-11-26T15:04:17Z</time>
      </trkpt>
      <trkpt lat="44.20672" lon="5.02262">
        <ele>238.1</ele>
        <time>2020-11-26T15:04:18Z</time>
      </trkpt>
      <trkpt lat="44.20672" lon="5.02261">
        <ele>237.9</ele>
        <time>2020-11-26T15:04:19Z</time>
      </trkpt>
      <trkpt lat="44.20672" lon="5.02261">
        <ele>237.9</ele>
        <time>2020-11-26T15:04:20Z</time>
      </trkpt>
      <trkpt lat="44.20672" lon="5.02259">
        <ele>237.4</ele>
        <time>2020-11-26T15:04:21Z</time>
      </trkpt>
      <trkpt lat="44.20673" lon="5.02262">
        <ele>238</ele>
        <time>2020-11-26T15:04:39Z</time>
      </trkpt>
      <trkpt lat="44.20673" lon="5.02265">
        <ele>238.6</ele>
        <time>2020-11-26T15:04:43Z</time>
      </trkpt>
    </trkseg>
  </trk>
</gpx>